GEFSSE_500_meanwind_000.txt.gz
Wind_Speed
14 17 16 14 12 11 10 9 8 7 6 6 7 7 8 9 10 11 12 13 12 11 10 9 8 7 5 5 5 4 4 5 6 6 6 6 5 2 1 4 1 2 3
14 14 13 11 9 8 7 7 7 5 3 3 4 6 6 6 7 8 10 10 10 9 8 7 5 4 4 3 2 3 2 2 3 3 3 4 5 3 3 3 2 2 4
11 10 9 9 7 5 4 4 4 4 2 1 4 7 7 6 4 5 6 7 7 7 7 6 4 1 1 1 0 1 1 1 1 2 2 2 3 3 3 2 2 0 3
7 7 6 6 5 2 1 1 1 2 2 2 5 8 9 8 5 4 4 5 5 5 5 4 3 2 2 3 2 1 1 1 1 0 0 1 2 3 4 2 2 1 2
6 4 4 4 3 2 2 3 2 2 4 5 6 8 9 8 6 6 6 7 7 7 7 5 3 3 3 5 6 5 3 3 3 3 1 1 2 2 4 4 3 3 1
6 5 5 5 4 5 6 5 4 4 8 9 9 8 8 7 7 7 7 9 11 10 8 6 4 3 4 6 7 8 7 5 5 5 4 3 2 1 1 1 2 2 2
5 5 6 6 6 6 7 7 5 7 12 13 12 9 6 5 6 6 8 11 12 11 10 7 4 4 6 7 8 8 9 9 8 6 5 5 4 4 3 2 1 1 1
7 9 10 9 8 8 9 10 10 12 15 16 14 10 7 7 8 8 9 9 9 10 9 8 7 6 8 10 9 10 9 10 11 10 8 7 7 7 5 4 3 2 3
7 8 11 12 12 11 12 14 14 15 16 15 14 11 9 10 10 10 8 8 6 9 9 8 8 8 8 9 10 10 10 11 12 13 11 9 10 10 9 8 6 5 4
7 8 9 11 13 14 14 15 15 15 15 15 14 13 13 13 13 11 10 10 8 8 9 8 8 8 8 9 10 9 9 11 12 13 14 12 11 12 12 11 11 9 7
8 8 9 10 12 12 14 15 16 16 16 17 17 17 17 17 18 17 15 15 14 12 11 10 8 7 7 9 10 11 9 10 12 13 15 14 14 13 13 14 14 12 10
10 10 11 12 11 11 12 13 15 16 17 19 20 21 22 22 21 21 20 20 19 18 16 14 11 9 8 9 11 11 10 9 10 13 15 17 17 16 15 16 17 15 13
13 14 15 16 15 15 15 16 16 15 16 17 17 18 20 22 23 23 23 24 23 22 21 20 17 13 10 11 12 11 10 10 10 11 13 17 19 18 17 17 18 18 17
17 19 20 21 20 21 22 21 19 19 20 20 20 20 22 24 24 24 24 26 27 26 25 25 23 18 15 13 13 12 11 10 11 11 12 15 19 20 20 19 19 19 20
24 25 26 26 26 28 29 29 27 27 28 27 26 24 22 23 25 25 25 26 27 28 27 25 25 22 20 19 16 13 12 12 13 13 13 13 17 21 23 23 21 20 21
31 31 33 35 35 36 36 36 36 36 36 33 31 31 29 28 27 27 28 28 27 28 28 27 27 26 24 22 20 17 14 13 14 15 16 15 16 18 21 23 25 23 23
36 37 39 41 41 41 40 40 40 40 38 37 37 38 37 34 32 31 31 30 31 31 30 31 30 29 28 25 23 21 20 19 18 18 18 19 18 19 20 22 24 27 26
42 42 44 45 46 46 45 44 45 43 42 42 41 42 43 42 40 37 34 33 34 35 35 33 32 33 32 29 26 25 25 24 23 22 21 22 22 22 22 24 26 27 28
47 47 46 46 47 46 45 45 50 48 45 46 44 44 47 49 50 45 38 37 39 39 38 38 36 35 35 33 31 30 29 28 27 25 25 26 26 26 26 26 26 27 28
51 51 51 51 51 50 48 48 54 55 52 56 52 49 53 54 54 53 50 46 45 43 41 42 39 38 37 36 35 35 33 30 29 29 29 30 30 28 27 28 28 27 29
50 50 51 51 52 52 55 54 57 61 63 59 59 61 60 57 56 59 66 62 54 49 45 42 39 37 37 36 36 35 33 30 30 31 31 31 31 30 28 27 29 28 30
47 48 50 51 53 54 53 51 57 65 63 53 57 64 67 60 55 58 62 69 63 55 50 45 41 39 37 36 34 31 29 31 31 30 32 33 32 33 31 28 28 30 31
45 46 47 46 48 48 47 49 50 53 59 61 66 71 66 57 52 51 61 63 58 56 48 46 43 38 36 33 32 30 30 30 31 32 33 35 33 31 32 31 31 32 33
43 43 43 43 44 44 44 45 47 48 47 51 56 59 60 57 51 47 48 36 48 54 45 44 49 44 39 36 35 35 36 35 33 30 30 34 34 30 29 31 34 35 36
37 36 36 38 40 41 40 42 45 49 49 49 50 50 49 49 49 44 43 31 32 42 45 39 49 55 51 45 42 38 36 35 33 28 27 29 31 30 28 30 35 37 37
33 34 35 38 40 42 42 42 44 47 49 49 48 47 45 43 45 43 39 41 39 37 38 42 47 47 52 48 41 35 35 33 30 27 26 26 28 29 30 30 33 35 36

GEFSSE_500_meanwind_006.txt.gz
Wind_Speed
10 8 6 3 3 2 2 2 5 7 9 11 13 14 12 10 9 9 10 10 11 11 10 9 9 10 10 10 9 9 9 9 10 10 11 12 11 9 8 8 5 4 4
9 7 4 2 1 1 2 3 5 6 8 10 13 15 14 12 10 9 9 10 10 11 12 11 9 9 9 9 9 9 8 8 8 9 10 11 11 9 7 7 6 3 1
8 6 3 1 2 4 5 6 6 7 7 9 12 15 15 13 10 9 9 10 11 12 12 12 11 10 9 9 9 9 9 8 7 7 8 8 9 9 8 6 5 3 2
9 6 4 2 3 5 6 6 6 5 6 9 11 13 14 13 10 9 9 10 11 12 11 11 11 11 10 10 10 10 9 9 8 7 6 7 7 7 7 7 6 4 3
8 7 5 4 4 6 7 7 6 4 5 8 11 13 14 13 10 8 7 10 12 11 11 11 10 11 11 11 12 11 10 10 9 8 6 5 5 6 6 6 6 5 4
7 7 7 6 6 7 8 8 7 6 6 9 13 14 14 12 10 9 10 12 12 12 11 10 9 10 10 11 12 12 11 11 11 10 9 6 6 6 5 5 5 5 5
8 9 9 9 9 10 11 11 9 9 10 12 14 15 15 13 13 12 11 12 12 12 11 10 9 8 10 10 12 13 13 11 12 12 11 9 7 7 5 5 5 6 7
12 13 13 13 13 14 15 15 14 14 14 14 15 15 15 15 15 14 13 12 12 11 11 11 10 9 9 10 11 13 15 14 12 12 12 12 11 9 8 7 7 7 7
13 14 15 16 16 16 17 17 17 16 16 15 16 16 17 17 17 17 17 15 14 13 13 12 12 11 9 9 11 12 14 16 15 13 12 12 13 12 12 10 9 8 9
14 14 15 15 15 16 17 17 17 16 16 15 16 18 18 19 20 20 20 20 19 17 17 17 15 14 12 11 11 12 13 15 16 16 14 13 14 14 14 13 11 10 11
12 13 13 14 14 16 17 18 18 18 17 17 18 19 21 22 24 24 23 23 24 22 22 21 21 19 17 14 13 13 13 14 16 17 16 16 16 15 15 15 14 13 12
12 13 13 14 16 18 20 21 21 21 21 22 23 24 25 26 26 27 26 25 24 24 24 25 26 26 23 20 17 16 14 14 15 16 16 16 17 17 17 16 16 16 15
15 16 16 18 20 21 23 24 25 25 26 28 30 30 29 29 31 31 31 29 27 26 27 27 28 28 28 26 23 20 17 15 15 16 16 16 17 17 18 18 18 18 17
23 22 22 24 25 26 24 24 26 28 29 31 31 31 32 32 32 31 31 32 32 31 31 31 29 28 30 30 28 25 21 19 17 17 17 17 17 17 18 18 19 20 21
29 30 28 28 29 29 28 27 29 31 31 32 32 31 32 34 35 35 34 34 33 31 31 31 32 30 30 31 31 29 27 23 21 19 18 18 18 19 19 18 19 20 21
34 36 34 33 34 34 34 34 34 36 36 36 34 33 33 35 38 38 38 38 37 35 33 32 32 32 32 31 30 30 30 29 25 22 22 20 20 21 21 21 20 20 21
39 41 41 39 39 40 41 41 42 42 41 41 41 39 37 38 40 41 41 42 42 40 39 36 34 33 33 34 33 32 32 33 31 29 27 24 23 24 25 25 24 23 23
44 45 46 46 46 46 47 47 48 48 48 47 46 44 43 42 43 45 46 47 49 48 46 42 38 36 36 37 38 37 35 35 36 35 32 30 28 27 28 29 29 29 28
48 49 49 50 50 50 50 51 50 49 47 46 46 46 46 46 47 48 49 52 54 54 53 50 46 43 41 42 43 42 39 38 38 39 38 36 33 31 32 32 33 33 32
46 47 48 48 48 48 48 48 48 46 44 44 45 47 48 49 49 50 52 54 56 57 58 58 54 49 47 47 48 47 45 43 42 42 41 40 38 35 34 34 35 34 32
40 41 41 41 42 42 42 42 42 43 43 43 44 45 47 49 50 51 53 54 55 57 59 60 58 54 52 53 52 51 49 47 46 46 43 42 41 38 34 33 34 34 33
40 40 41 42 43 43 44 44 43 43 43 43 45 46 47 48 49 50 51 53 54 53 54 55 57 56 56 57 58 57 54 50 50 48 45 42 41 37 33 32 34 36 36
43 43 43 44 45 45 46 46 45 44 44 45 46 47 47 49 50 51 51 51 51 51 50 51 54 54 56 57 57 56 55 52 50 49 46 41 39 35 33 34 37 37 37
40 41 42 43 43 43 45 45 45 44 45 46 47 48 49 51 52 53 52 51 50 49 49 50 51 52 51 50 48 48 48 46 46 46 43 40 37 34 34 37 39 37 34
37 38 38 38 38 39 40 41 42 43 44 45 47 48 49 49 50 52 53 52 51 50 49 48 48 48 47 42 40 41 43 44 44 43 41 38 37 37 37 38 39 36 32
36 36 37 38 38 38 39 40 42 43 44 45 46 47 48 49 49 50 53 54 54 53 51 49 48 46 43 39 36 38 41 44 44 43 41 38 39 41 42 39 36 33 32

GEFSSE_500_meanwind_012.txt.gz
Wind_Speed
7 7 8 9 9 10 11 12 13 13 13 15 17 18 19 17 15 15 15 16 17 17 16 15 14 14 14 12 11 11 11 11 10 10 10 11 9 8 8 7 6 6 7
4 4 6 7 8 9 10 10 11 10 11 13 15 17 18 17 16 14 15 17 19 18 17 15 14 14 14 14 12 10 9 9 9 10 10 10 10 10 9 7 5 4 4
2 3 4 6 7 8 9 10 10 8 9 11 13 16 18 17 15 14 14 17 18 18 18 16 14 14 14 15 14 12 9 8 8 9 9 9 9 9 9 8 7 4 2
4 5 6 6 7 7 8 9 8 6 6 8 11 13 16 16 15 13 13 15 17 18 18 17 15 14 15 15 15 14 12 8 6 7 7 7 7 7 7 7 7 6 3
7 8 9 9 9 9 8 9 8 6 6 7 9 11 13 14 14 13 13 15 15 16 17 17 17 15 14 15 15 16 16 12 8 7 7 7 5 4 4 5 5 5 4
6 8 9 10 10 10 10 10 10 10 9 10 11 11 11 12 13 13 13 14 14 14 15 16 16 16 15 14 15 16 17 16 12 8 7 8 7 6 5 4 4 3 3
7 8 9 10 11 12 12 13 13 14 13 13 13 12 12 12 13 13 14 15 15 14 14 15 15 16 16 16 16 16 16 16 15 11 8 9 9 7 7 6 5 4 4
8 10 10 11 11 12 13 14 14 14 13 13 12 12 11 12 12 13 14 15 15 16 15 15 16 16 16 15 15 16 15 15 15 14 11 10 10 9 9 8 8 7 6
9 11 12 12 11 11 11 10 11 11 12 12 11 11 11 11 11 11 12 14 15 15 15 16 16 17 17 17 17 16 15 14 15 15 14 12 11 10 11 10 9 9 9
10 12 13 13 11 10 9 9 9 10 10 10 10 10 11 11 11 11 12 13 14 14 14 14 15 16 17 18 19 18 16 15 15 15 15 14 13 12 11 12 12 11 11
11 12 13 13 12 11 11 12 13 13 13 13 14 14 14 14 13 13 13 13 13 13 13 14 15 15 16 17 19 20 19 17 16 15 15 15 14 13 11 11 12 14 14
12 12 14 14 15 15 16 17 18 19 19 20 20 21 20 19 19 17 17 16 15 15 15 16 17 17 18 18 18 19 20 19 18 17 16 15 15 14 12 12 12 13 15
17 17 18 20 21 21 22 23 24 25 25 24 25 26 26 25 25 24 23 22 20 19 18 18 18 19 19 19 18 19 20 20 20 19 19 18 16 14 13 13 13 12 13
22 23 24 26 27 27 27 27 28 29 30 29 29 30 31 30 29 29 29 28 27 26 24 22 22 21 21 21 19 18 19 20 20 20 22 21 19 17 16 15 14 14 14
27 28 28 29 32 33 32 32 32 33 34 35 35 35 35 35 34 33 32 31 30 30 29 27 26 25 25 24 23 20 19 19 21 21 22 24 24 22 21 20 18 16 16
32 33 32 32 34 36 37 37 37 37 38 39 40 40 40 38 37 36 35 33 32 32 31 30 30 29 29 28 28 26 24 22 23 23 23 25 27 27 26 25 23 21 19
36 37 37 37 38 39 40 41 41 41 40 40 40 39 39 39 38 37 37 36 34 34 33 32 33 33 33 32 32 31 31 29 27 26 26 26 28 29 30 29 28 26 24
36 37 38 39 39 40 40 41 41 41 40 40 39 38 38 38 37 37 37 36 36 36 36 36 36 37 38 37 37 36 36 35 34 32 30 30 31 31 32 32 32 31 29
33 34 35 37 38 38 38 38 39 39 39 39 38 38 39 39 38 38 38 38 39 40 39 39 39 40 40 40 40 40 39 39 38 37 36 35 35 34 35 36 35 35 33
34 33 34 35 36 37 37 37 38 39 39 39 39 39 39 39 40 40 41 42 43 43 42 41 41 41 41 40 41 40 39 39 40 39 38 38 38 37 38 38 37 37 36
33 34 34 35 36 38 38 39 39 40 40 40 40 40 40 41 41 41 41 42 42 43 43 43 42 41 40 40 41 40 38 37 37 38 39 39 39 40 40 41 40 38 38
32 33 35 35 35 36 37 38 38 38 38 38 38 38 39 39 39 39 39 40 40 41 41 41 42 41 41 41 42 42 40 38 38 39 40 40 40 41 40 41 41 40 39
33 35 36 36 36 36 37 38 38 38 36 35 36 36 36 36 36 36 37 38 39 40 41 41 42 42 42 42 43 43 42 39 38 37 38 38 37 36 35 36 37 39 38
34 36 36 36 36 37 38 38 39 40 39 39 38 38 38 37 37 38 38 39 40 41 41 42 42 42 42 42 43 43 43 41 39 37 37 36 33 31 31 32 33 35 35
33 34 36 38 39 40 41 41 41 41 42 42 41 41 40 40 40 41 41 42 42 42 42 43 43 43 43 43 43 44 44 43 41 40 37 35 33 31 29 29 31 32 33
31 33 34 37 38 40 42 43 43 43 43 43 42 42 41 41 41 41 42 42 42 43 43 44 45 44 44 44 45 45 45 44 43 41 37 35 34 33 31 29 30 31 32

GEFSSE_500_meanwind_018.txt.gz
Wind_Speed
9 10 9 10 10 12 13 13 12 13 14 16 17 18 18 17 16 17 18 19 19 19 18 16 16 16 15 14 11 9 9 10 11 10 10 9 7 6 4 3 3 4 5
8 8 8 8 9 11 12 12 11 10 11 12 14 15 15 15 14 14 15 17 18 18 18 17 16 16 16 15 14 10 8 7 8 8 8 7 7 6 4 3 2 2 2
8 7 7 7 8 9 10 10 10 9 9 10 11 12 12 12 13 13 13 14 15 16 16 16 15 15 14 14 14 13 10 7 5 5 6 6 6 5 5 4 3 2 2
6 6 5 6 7 8 8 9 9 8 8 8 9 9 9 9 10 10 11 12 12 13 13 13 13 13 12 12 12 12 11 9 7 5 4 4 4 4 5 4 4 3 2
4 3 4 5 6 6 7 7 7 7 7 6 6 6 6 6 7 8 9 10 10 10 11 10 10 10 10 9 9 9 9 9 8 7 4 3 3 3 3 3 3 3 3
5 5 5 5 5 6 6 6 6 6 6 5 5 4 4 4 5 6 7 8 8 8 8 9 9 8 7 7 7 7 7 7 8 8 7 4 2 3 3 2 1 1 1
9 9 8 8 7 7 6 5 4 5 5 5 5 4 4 4 5 6 7 8 9 9 9 9 9 9 8 8 7 7 6 6 6 7 7 6 3 2 4 4 3 2 1
10 10 10 9 9 8 7 5 4 4 5 5 5 6 6 7 8 9 10 11 11 12 11 10 10 10 10 10 9 9 8 7 7 7 6 5 4 2 4 6 6 5 4
10 10 11 10 10 9 8 7 6 6 6 6 7 8 9 11 12 13 13 14 15 15 14 13 12 12 11 11 11 10 10 9 9 9 8 6 4 3 3 5 7 7 7
9 10 10 11 10 10 10 10 9 9 10 10 11 12 14 15 16 17 17 17 17 18 18 17 16 15 14 14 13 12 12 11 11 10 10 9 7 5 4 4 5 7 8
12 11 11 11 12 12 13 14 15 15 16 16 17 17 18 19 19 20 20 20 20 20 20 20 20 19 19 17 16 15 14 13 12 12 12 12 11 8 6 5 5 6 8
18 17 17 16 17 17 18 19 20 21 22 22 23 23 23 23 24 24 25 25 24 24 23 23 24 23 23 21 19 18 16 15 14 14 14 14 14 13 11 9 8 8 8
23 23 23 23 23 23 24 25 26 26 27 27 28 28 28 28 29 29 29 30 29 29 28 28 27 27 27 26 25 23 20 18 17 16 16 16 17 17 15 14 13 12 10
26 27 27 28 28 29 29 30 30 30 31 32 32 32 32 33 33 33 33 33 34 34 34 33 32 31 30 30 28 27 25 23 21 19 19 19 19 19 19 18 18 16 15
29 30 31 32 33 33 34 34 34 34 34 35 36 36 37 37 37 37 37 36 37 38 38 38 37 36 35 34 32 31 29 28 26 24 23 22 22 22 21 21 21 20 19
31 31 32 33 34 35 36 37 38 38 38 38 39 40 41 41 41 40 39 37 37 38 38 38 39 39 38 37 35 34 33 32 30 29 28 27 26 26 25 24 24 24 23
32 32 32 32 32 33 34 35 37 38 39 39 39 39 41 41 41 40 39 38 39 39 38 38 38 38 38 38 37 37 36 35 34 32 31 31 31 31 30 29 28 28 27
30 30 30 29 30 30 30 31 32 34 35 36 36 37 38 40 40 40 40 39 40 41 40 39 38 38 37 37 37 37 37 36 35 35 34 33 34 34 34 34 34 33 32
30 31 30 30 29 28 29 29 30 31 33 35 37 38 39 40 41 41 41 40 40 41 41 41 41 41 40 39 39 39 39 38 36 35 35 34 34 34 35 36 37 37 36
33 33 33 31 29 29 29 30 30 32 34 35 37 38 39 40 41 42 42 42 42 41 41 42 42 42 42 41 41 41 39 38 37 36 35 35 34 33 34 36 37 39 39
35 34 33 31 30 30 30 30 31 32 33 35 36 37 38 38 39 40 40 40 40 40 39 39 40 41 40 40 41 39 38 38 37 36 36 35 34 34 34 34 36 37 38
34 33 33 32 30 30 30 31 32 33 35 36 37 38 39 39 39 39 39 39 38 38 37 37 38 38 37 38 39 38 37 36 36 37 37 36 34 34 34 34 35 35 37
32 32 32 32 31 31 31 31 31 32 33 35 36 38 40 41 41 40 40 40 40 39 38 38 37 37 36 37 38 38 37 35 36 36 36 36 34 34 34 33 33 33 35
31 31 32 32 30 29 28 28 28 29 30 32 34 36 37 39 40 41 41 41 41 41 40 39 38 38 37 37 38 38 38 36 36 35 36 37 36 35 34 33 33 32 33
30 31 31 29 27 25 24 23 23 25 27 29 32 34 35 37 38 39 40 41 41 42 41 40 39 38 38 37 38 38 38 38 37 36 35 35 36 35 34 34 33 32 32
29 30 28 25 23 22 21 21 22 24 26 28 30 33 34 35 37 37 38 39 41 41 42 41 40 39 38 38 38 38 38 38 38 36 35 35 36 36 35 34 34 33 32

GEFSSE_500_meanwind_024.txt.gz
Wind_Speed
7 8 8 7 6 5 5 5 6 7 8 9 9 8 8 8 9 10 11 11 11 11 10 10 10 10 10 8 5 4 4 5 5 6 6 7 6 6 5 5 5 5 5
5 5 6 5 4 3 3 4 4 5 5 5 5 5 5 6 7 7 8 8 8 8 8 8 7 8 8 8 7 5 3 2 3 4 4 5 5 5 4 4 3 3 4
3 3 4 3 2 1 2 3 4 5 5 5 5 5 5 5 6 6 6 7 6 6 5 5 5 5 5 6 6 6 5 2 1 1 2 3 3 3 3 3 3 4 4
1 1 2 1 1 2 3 4 5 6 6 6 6 6 6 6 6 7 7 8 8 7 7 5 4 4 4 4 4 5 5 5 3 1 1 1 2 2 3 3 4 4 5
3 3 3 3 3 4 5 6 6 6 6 6 7 6 6 6 6 7 8 9 10 10 10 9 8 7 6 5 4 4 4 4 3 2 2 4 4 4 4 5 5 5 6
3 4 4 5 5 6 6 7 7 7 7 7 7 7 6 6 7 8 10 11 12 12 12 11 11 10 9 8 8 7 6 4 3 3 2 4 5 7 7 7 7 7 7
3 3 4 4 5 5 6 6 7 7 7 7 7 7 7 8 9 10 11 12 13 13 13 13 12 12 11 11 10 10 9 8 7 5 4 5 6 8 9 10 11 10 9
3 4 4 5 5 5 5 6 6 7 7 7 8 9 9 10 11 12 13 14 14 14 14 14 14 13 13 13 12 12 12 11 10 10 8 7 8 8 9 11 13 13 12
5 6 7 8 8 8 8 8 8 8 8 9 10 11 12 13 14 15 16 16 16 15 15 15 16 16 16 15 15 15 14 14 14 13 12 11 11 10 10 10 12 12 13
9 10 12 13 13 13 13 13 12 12 12 13 13 14 16 17 17 18 19 19 19 19 19 19 19 19 19 19 18 18 17 16 16 16 15 15 14 13 12 11 11 12 13
14 16 17 18 19 20 20 20 19 19 19 19 20 20 20 21 21 22 22 23 23 23 23 23 23 22 23 23 22 22 21 20 20 19 18 17 17 16 15 14 13 12 13
20 21 22 23 23 24 25 25 25 25 25 26 26 25 25 25 25 25 26 27 27 28 28 28 28 27 27 27 27 26 25 25 24 23 21 20 19 19 18 17 16 15 14
25 26 26 26 26 27 28 28 29 29 29 29 30 30 30 30 30 30 31 31 32 33 33 34 33 32 32 31 31 31 31 30 28 27 25 23 21 21 20 20 19 18 17
29 29 29 30 30 30 30 31 32 33 33 33 34 34 35 34 34 34 34 35 36 37 38 38 38 37 36 35 35 35 35 35 33 31 30 27 25 24 22 22 22 22 21
33 33 33 33 33 33 33 32 32 32 33 34 35 36 36 37 37 37 37 37 38 39 40 40 41 40 39 38 38 37 37 36 37 36 34 32 29 27 26 25 25 25 25
36 37 37 36 34 33 32 31 30 30 31 32 33 34 34 35 35 35 35 35 36 36 37 38 39 40 40 39 37 36 36 37 37 37 36 35 34 33 31 29 28 28 27
38 38 37 35 33 32 31 30 30 30 29 30 31 31 31 31 31 31 32 33 34 36 36 37 37 38 38 39 38 37 36 36 36 36 37 36 35 33 33 32 32 31 30
39 38 37 35 34 33 32 31 31 30 30 30 30 30 29 29 29 30 31 32 34 36 37 38 38 38 38 38 38 38 38 37 36 36 36 35 35 35 35 35 35 34 33
38 37 36 35 35 34 32 30 29 29 29 29 28 28 27 27 28 28 30 31 33 35 37 38 38 39 39 39 39 39 38 39 37 37 37 36 36 35 35 35 36 36 36
37 36 37 36 35 34 31 29 27 27 27 26 25 24 23 23 24 25 27 29 32 35 37 38 39 39 39 39 39 38 38 38 37 37 37 37 37 36 35 34 34 35 35
37 38 38 37 36 33 30 28 26 25 23 21 20 19 19 19 19 21 23 26 29 32 35 38 40 40 40 40 40 38 37 36 36 36 37 37 37 36 36 35 35 35 36
38 39 39 38 36 32 29 27 25 22 19 17 16 16 16 17 18 19 21 24 26 29 32 35 38 40 41 41 41 40 38 37 36 35 36 37 37 37 37 36 36 35 36
40 40 39 38 35 31 28 26 23 19 17 16 16 17 17 18 19 19 21 23 25 27 29 32 35 37 39 41 42 41 40 37 36 35 35 36 36 36 36 36 35 35 36
39 38 37 35 33 31 28 25 23 21 20 19 20 21 21 22 22 22 23 24 26 27 29 30 31 34 36 39 40 41 40 39 38 36 36 35 36 37 37 36 35 35 35
36 35 36 36 34 32 29 27 25 24 24 24 25 25 26 26 25 25 25 25 26 27 28 29 30 31 33 35 37 39 40 39 38 37 36 36 36 37 37 37 36 36 35
35 36 36 35 34 33 31 30 29 28 29 29 29 29 28 28 27 26 25 26 27 28 29 29 29 29 30 32 34 36 37 38 38 37 36 36 37 36 37 36 35 35 35

GEFSSE_500_meanwind_030.txt.gz
Wind_Speed
4 4 4 4 4 4 6 8 9 11 12 12 12 12 11 11 11 11 12 13 13 12 12 12 11 11 12 12 12 11 9 9 8 7 7 6 5 4 4 5 5 5 6
2 2 1 1 1 2 4 6 8 9 11 11 11 11 10 9 10 10 11 12 12 12 11 11 11 10 10 10 11 11 10 9 8 7 6 6 5 4 3 3 3 3 3
1 0 0 1 1 2 4 5 7 8 10 10 11 10 9 8 8 9 9 10 11 11 11 10 10 10 9 9 9 9 9 9 8 7 6 6 5 4 3 2 1 0 0
1 2 2 2 3 4 5 6 7 9 9 9 10 10 10 9 8 8 9 9 10 11 10 10 10 9 9 9 9 8 8 8 7 7 6 6 6 5 4 3 2 2 2
2 3 3 4 4 5 6 7 8 9 9 9 9 10 9 9 9 9 9 10 10 11 11 10 10 9 9 9 9 9 9 9 8 7 7 6 7 6 6 5 4 4 4
4 4 4 5 5 6 7 7 8 9 10 10 10 10 10 10 10 10 10 11 12 11 11 11 10 10 10 10 10 11 11 11 10 9 8 8 8 8 7 7 7 7 6
4 4 4 5 6 7 8 9 10 11 12 12 12 12 12 12 12 12 13 13 13 13 12 11 11 11 11 11 11 12 12 12 12 11 10 10 10 9 9 9 9 9 9
3 4 5 6 7 9 10 11 12 13 14 15 14 14 14 14 15 15 16 16 15 15 14 13 13 13 13 13 13 13 13 13 13 13 12 12 12 11 11 11 10 11 12
4 5 7 9 10 12 13 14 15 16 17 18 18 18 18 18 19 19 20 20 19 18 17 17 17 16 16 17 16 16 16 16 15 14 14 14 14 13 13 13 12 12 13
7 9 11 13 14 15 16 17 18 19 20 21 21 22 22 23 23 23 24 24 24 23 22 21 21 21 21 21 21 20 20 20 19 18 17 16 16 15 15 15 14 13 13
11 12 14 16 17 18 19 20 20 21 23 24 25 26 27 27 27 28 28 28 27 27 27 26 26 26 26 26 26 25 25 25 24 23 21 19 19 18 17 16 16 15 15
16 17 18 19 20 21 22 23 24 24 25 26 27 28 29 30 30 30 30 31 31 31 30 30 30 30 30 30 31 30 29 29 28 27 25 24 23 22 21 20 18 18 17
20 21 22 23 24 25 26 25 26 27 27 28 29 29 30 31 32 32 32 32 33 34 33 33 33 33 33 33 33 33 32 32 31 31 30 28 26 25 24 23 21 20 19
24 25 26 27 28 29 29 30 29 29 29 28 29 29 30 31 31 32 32 32 33 33 34 34 34 33 33 34 34 33 33 34 34 33 33 31 29 28 27 26 24 23 22
28 29 30 31 31 32 32 33 32 31 31 30 29 29 28 29 30 30 30 31 31 31 31 31 31 32 32 32 32 31 31 32 33 33 33 31 31 30 28 27 27 26 25
32 33 34 35 35 35 34 34 33 32 31 31 30 30 30 30 30 30 29 28 27 27 27 27 28 29 30 31 31 31 30 30 31 31 33 33 32 31 30 28 28 28 28
37 37 38 38 37 37 35 34 32 32 32 32 32 31 31 30 30 29 28 27 26 25 26 26 27 29 29 30 31 32 32 31 31 31 31 30 31 30 29 30 29 28 28
41 41 41 41 39 37 35 33 32 32 32 32 31 31 29 28 28 27 26 25 24 24 24 24 25 26 28 29 30 32 33 32 32 32 31 30 31 29 28 28 28 28 29
45 44 44 43 40 37 35 34 33 32 32 31 30 29 28 27 26 25 24 23 22 22 22 22 23 24 26 27 29 30 32 33 33 33 31 30 31 30 29 28 28 29 29
46 44 42 42 39 36 35 34 33 32 32 31 30 29 28 27 25 23 22 21 20 20 21 21 22 24 25 27 28 30 31 32 33 33 32 32 31 30 30 30 29 30 30
43 42 40 38 36 36 35 35 34 32 30 30 29 27 26 25 24 22 21 19 19 20 20 21 22 23 25 27 27 29 30 31 32 32 32 32 31 31 31 31 30 29 29
40 40 36 34 34 34 34 34 33 32 30 29 27 26 25 24 22 21 20 20 20 20 21 22 23 24 25 27 28 28 28 30 31 31 31 32 32 31 31 32 31 30 29
30 24 26 30 32 34 36 35 34 33 31 29 27 25 24 23 22 22 21 21 21 22 23 24 24 24 25 27 28 28 28 28 29 30 30 30 31 31 30 31 31 30 29
37 39 35 31 31 34 35 35 33 31 30 28 27 25 23 23 23 23 23 24 24 24 25 25 25 25 25 26 28 28 28 28 28 27 28 29 30 30 30 31 31 31 30
41 39 39 36 35 33 34 35 33 31 29 26 25 25 24 24 25 25 26 26 26 26 26 27 27 27 26 27 27 28 28 28 27 25 24 27 29 30 30 30 31 31 29
40 40 40 38 37 36 36 35 34 33 30 28 27 27 27 27 28 28 29 30 30 30 29 28 29 28 28 28 28 27 27 27 26 25 23 24 27 29 30 29 30 30 29

GEFSSE_500_meanwind_036.txt.gz
Wind_Speed
3 2 2 2 2 3 4 5 6 7 8 9 9 10 10 10 10 10 11 11 12 12 11 10 9 8 8 9 9 10 9 9 9 8 8 7 7 6 6 6 7 8 8
3 3 2 2 1 1 1 2 3 5 6 6 7 8 8 8 8 9 9 10 11 11 11 10 9 8 7 7 7 8 9 9 8 7 7 6 6 6 5 4 4 5 6
5 4 4 4 3 3 3 3 3 4 5 5 5 6 6 7 7 8 9 9 10 11 11 10 8 7 6 6 6 6 7 7 7 7 7 6 5 5 4 3 2 2 3
6 6 6 5 5 5 5 5 5 5 5 5 5 5 6 6 7 8 8 9 10 10 10 10 9 8 6 5 5 5 5 5 5 6 6 6 5 4 3 2 2 1 1
7 7 7 7 6 6 6 6 6 6 5 5 6 6 7 7 7 8 8 9 9 10 10 10 9 8 7 6 6 5 4 5 5 5 5 4 4 3 3 2 1 0 0
8 8 8 7 7 7 7 6 6 6 7 7 8 8 9 9 9 9 9 10 10 10 10 10 9 8 8 8 7 6 5 4 4 5 5 5 5 4 3 3 2 2 2
9 9 8 8 8 8 7 7 7 8 9 9 10 11 12 12 12 12 12 12 13 13 12 11 11 10 10 10 9 8 7 6 5 5 6 5 5 5 4 4 4 4 4
9 9 8 8 8 8 8 9 10 11 12 12 13 13 14 14 15 15 16 16 16 16 15 15 14 14 14 13 12 11 11 9 8 7 7 7 6 7 6 6 6 6 6
9 9 9 9 10 11 11 12 13 14 15 15 16 16 16 17 18 19 19 19 19 19 19 18 18 18 18 17 17 16 15 14 12 12 11 10 9 9 8 8 7 7 7
10 10 11 12 13 14 14 15 15 16 16 17 17 18 19 19 20 21 22 22 22 22 22 22 21 21 21 21 21 20 20 19 17 16 15 15 13 12 12 11 10 9 9
12 14 16 17 17 17 17 17 17 17 18 18 19 19 20 21 22 23 24 24 25 24 25 25 24 25 25 25 24 24 24 23 22 21 19 19 18 17 15 14 14 12 12
17 19 20 21 21 21 20 20 20 20 20 21 21 21 22 22 23 24 25 26 26 26 26 26 26 27 27 27 27 26 26 26 25 24 23 23 22 22 20 18 17 16 15
24 24 25 25 25 24 23 23 22 23 23 23 23 23 23 23 24 24 25 26 26 26 26 27 27 27 27 27 26 26 26 26 26 25 25 25 25 25 24 22 21 19 19
27 29 29 29 28 28 27 26 26 25 26 26 25 25 24 24 24 23 23 24 25 26 26 26 26 25 25 25 25 25 25 24 25 26 26 26 26 27 27 26 25 24 22
29 31 33 32 32 31 30 30 29 28 28 27 25 25 24 24 25 25 24 24 24 24 25 25 25 25 25 24 24 24 25 24 24 25 26 25 25 26 28 28 27 27 25
34 35 36 35 35 34 32 32 30 29 28 27 25 25 25 25 25 26 25 25 24 24 24 24 24 24 23 23 22 22 22 22 23 24 24 25 25 26 27 27 27 27 27
39 42 41 40 40 38 35 33 32 30 28 27 26 26 26 25 26 25 25 25 24 24 24 24 23 23 22 21 21 21 20 21 21 22 23 23 25 26 27 27 28 28 27
43 47 47 45 39 37 36 35 32 30 29 27 27 27 27 26 26 25 25 24 24 23 23 23 22 21 20 19 19 18 18 19 20 20 21 22 24 25 26 27 27 27 28
45 47 47 43 38 36 36 34 32 30 29 29 27 27 27 26 26 25 25 24 23 23 22 22 21 20 19 18 17 17 17 17 18 19 20 21 23 25 26 27 27 27 29
44 46 44 41 39 33 29 28 27 26 27 26 26 26 25 26 26 25 25 24 23 22 22 21 20 19 18 17 16 16 16 17 17 18 20 21 22 24 26 27 28 28 29
43 44 45 41 35 28 25 27 27 25 24 23 25 25 24 25 25 25 24 24 23 23 22 21 20 19 18 17 16 16 16 16 16 17 19 20 22 23 24 26 28 29 30
43 45 43 38 32 28 25 22 21 20 22 24 24 24 25 26 25 24 24 24 24 23 22 22 21 20 20 18 17 17 17 17 17 18 19 20 21 22 23 25 27 29 31
43 41 39 35 32 29 26 22 21 20 21 22 21 21 23 24 25 25 24 24 24 24 23 23 22 22 21 20 19 18 18 18 19 19 19 20 21 22 22 24 27 29 31
40 38 36 35 33 31 26 24 23 21 22 21 21 22 22 22 24 25 25 26 25 25 26 25 25 23 23 23 21 20 19 18 19 21 21 21 20 21 21 22 24 27 29
40 40 38 37 34 33 30 28 27 26 25 25 25 24 24 24 25 26 27 28 28 28 28 29 28 26 25 25 24 22 21 20 19 19 21 22 21 20 20 21 22 24 26
43 43 43 41 39 37 35 34 33 32 31 31 29 28 27 28 28 29 29 29 30 30 31 31 31 30 29 27 26 25 23 22 21 20 20 22 22 21 20 20 21 22 24

GEFSSE_500_meanwind_042.txt.gz
Wind_Speed
7 6 6 6 6 6 5 5 3 3 4 5 5 6 6 7 7 8 9 10 10 10 10 8 7 6 5 6 6 7 6 6 6 7 7 7 7 7 7 7 7 7 7
9 8 8 8 9 9 8 7 5 3 2 2 2 3 4 5 5 6 7 7 8 9 10 9 7 6 5 4 4 4 4 5 5 5 5 5 5 5 5 5 5 6 6
10 10 10 10 10 10 10 9 8 6 4 3 2 2 2 3 4 5 5 6 7 8 9 9 8 7 5 4 3 3 2 3 3 4 4 3 3 3 3 4 4 5 5
10 11 11 12 12 11 10 9 9 8 7 6 5 4 4 5 5 5 6 6 7 7 8 8 8 7 6 5 4 3 2 2 1 1 1 1 2 2 3 3 4 4 4
11 12 13 13 13 12 11 10 10 9 8 7 7 7 7 7 7 7 8 8 8 8 8 8 7 6 6 5 4 4 3 3 2 1 1 1 1 2 3 4 4 4 4
11 13 14 14 13 12 12 11 11 10 9 9 9 9 9 10 10 10 10 10 11 10 10 9 8 8 7 6 5 5 5 4 3 3 3 3 3 3 3 4 5 5 4
12 14 15 14 13 12 12 11 11 11 11 11 11 12 12 13 13 13 14 14 14 14 14 13 12 11 10 10 8 8 7 7 6 5 5 5 5 5 5 5 5 5 6
13 14 14 14 13 12 12 12 12 13 13 13 14 15 15 15 16 16 17 17 17 18 18 17 17 15 14 13 12 12 11 11 11 10 8 8 7 7 7 7 7 7 7
12 14 14 15 15 14 14 14 15 15 16 16 16 17 17 18 18 19 19 20 20 20 20 20 20 19 18 17 16 16 15 15 14 14 13 12 11 10 9 9 9 9 9
13 14 16 17 18 18 18 19 18 19 19 19 19 19 19 20 21 21 22 22 23 23 23 23 23 23 22 21 20 19 19 19 18 18 18 16 15 14 13 12 12 12 12
15 17 19 21 22 23 23 24 24 24 24 23 23 22 22 22 22 23 23 24 25 25 24 24 25 25 25 24 23 22 22 22 21 21 21 20 19 18 17 16 16 15 15
18 20 22 25 26 28 29 29 29 29 29 28 28 26 25 25 24 24 25 25 26 26 25 25 25 26 26 25 25 24 24 24 23 23 22 22 22 21 20 20 19 19 18
22 24 26 28 30 32 32 33 34 34 34 33 33 31 30 28 27 26 26 26 27 26 26 25 26 26 26 26 26 25 24 24 23 22 21 21 22 22 22 22 22 22 22
26 27 29 30 32 33 34 34 35 37 37 37 37 35 34 32 30 28 28 27 27 26 26 25 25 26 26 26 26 25 24 23 22 22 21 20 21 21 22 22 23 23 24
28 28 30 32 32 32 34 36 36 36 37 37 38 38 37 34 33 31 29 28 27 26 26 26 26 26 26 26 26 25 23 23 22 23 22 21 21 21 22 22 22 23 24
29 29 31 32 33 35 36 35 37 37 38 40 40 40 40 37 35 33 30 29 28 27 26 27 27 26 26 26 26 25 25 23 22 22 22 21 21 20 20 21 22 23 24
30 32 34 35 35 35 37 37 38 38 36 38 39 40 40 39 36 34 32 30 28 27 26 26 26 26 26 26 26 26 24 23 22 21 20 20 19 19 19 20 21 23 24
34 35 37 36 36 36 37 37 37 37 35 34 35 38 38 37 36 34 32 30 29 27 27 27 27 27 26 26 26 25 24 22 21 20 19 19 18 18 19 19 20 21 23
37 38 38 37 38 37 36 36 34 34 32 32 31 34 35 35 34 33 32 31 29 27 27 27 26 26 26 25 25 24 23 22 20 19 18 18 18 17 18 18 19 20 22
40 40 39 39 39 37 34 33 33 32 30 29 27 28 32 33 33 32 31 31 29 27 27 26 25 25 24 24 24 24 23 22 20 20 18 17 17 17 17 18 19 20 22
43 43 41 39 38 36 35 34 32 31 29 27 27 26 27 28 30 32 30 28 28 28 27 26 25 25 24 24 24 24 23 22 21 20 19 17 17 16 17 17 19 20 22
43 43 42 40 40 38 36 35 33 31 30 28 25 25 25 25 27 29 29 28 29 28 27 26 25 25 25 24 25 24 23 22 21 20 19 18 17 16 17 17 18 20 21
41 41 41 41 41 40 39 37 35 33 31 28 27 26 25 25 27 29 29 29 29 28 28 27 27 26 26 26 26 26 24 23 22 22 20 18 18 17 17 18 19 20 21
38 40 41 41 41 41 40 38 37 35 33 32 29 28 28 28 28 29 29 29 30 30 29 29 29 29 28 28 28 28 27 25 24 23 22 20 19 18 18 19 19 20 20
35 37 39 41 42 43 42 41 39 38 37 36 34 33 32 32 32 32 32 31 31 32 32 32 31 31 31 30 30 30 29 27 26 25 23 22 20 19 19 19 20 20 20
35 38 40 42 43 44 44 43 43 42 41 40 39 38 38 37 36 36 36 35 35 35 35 34 34 33 33 32 32 32 31 30 29 27 26 24 22 20 20 20 20 20 20

GEFSSE_500_meanwind_048.txt.gz
Wind_Speed
5 5 5 5 5 6 7 7 8 8 7 7 6 5 3 3 3 4 4 5 6 7 6 6 4 3 2 2 2 3 3 3 4 4 4 4 5 5 5 5 5 5 5
6 6 6 6 6 7 7 8 9 9 9 8 8 7 5 4 4 3 3 4 4 5 6 5 5 3 2 1 1 1 2 2 2 2 2 3 3 4 4 5 5 4 4
7 7 7 7 7 7 8 9 10 10 10 10 9 9 8 7 6 5 5 4 4 4 4 4 4 4 3 2 1 1 1 1 1 1 1 1 2 2 2 3 3 4 4
7 7 7 7 7 8 9 9 10 10 11 11 11 10 9 9 8 8 7 6 5 4 4 3 3 3 3 2 2 2 2 2 2 2 2 1 0 1 1 2 3 3 4
7 7 7 7 8 9 9 10 11 11 12 12 12 12 11 11 11 11 10 10 9 8 7 6 5 4 4 3 3 3 2 2 3 3 3 3 3 2 2 3 3 4 4
7 7 7 7 8 9 10 10 11 12 12 13 13 13 13 13 13 13 13 13 12 11 10 9 9 7 6 6 5 5 4 4 3 3 4 4 5 5 5 5 5 6 6
9 8 7 8 9 9 10 11 12 12 13 14 14 15 15 16 16 16 16 16 15 15 14 13 12 11 10 9 9 8 8 7 6 5 6 6 6 6 7 7 7 7 8
8 8 8 9 10 11 11 12 13 14 15 15 16 17 17 18 18 19 19 19 18 18 18 17 16 15 14 13 13 12 11 11 10 9 9 9 9 9 9 9 9 9 10
9 9 10 11 12 13 13 14 15 16 17 18 19 20 20 21 21 21 22 22 22 21 21 20 19 18 18 17 17 16 16 15 14 14 13 12 12 12 12 12 11 11 11
12 12 13 14 16 17 17 18 19 20 21 22 23 24 24 24 25 25 25 25 25 25 24 23 22 22 21 20 20 19 19 18 18 17 17 16 16 16 15 15 15 14 14
15 16 17 19 20 21 22 23 24 25 25 26 27 28 29 29 29 29 29 29 29 28 27 26 25 25 24 23 23 22 21 21 20 20 20 19 18 19 19 18 18 17 17
18 20 22 23 24 25 27 27 28 29 29 29 31 32 33 33 34 33 33 33 32 31 30 29 28 27 26 26 25 24 23 22 22 22 22 21 21 20 20 20 21 20 19
22 24 25 26 27 28 29 30 30 32 32 32 32 33 34 35 36 36 36 36 36 35 33 32 31 29 28 28 27 25 24 23 23 23 23 22 21 20 21 22 22 22 22
25 25 27 28 29 30 31 32 33 33 33 34 34 34 35 36 37 38 38 39 39 38 36 35 33 32 30 29 27 26 24 23 24 23 22 21 20 20 20 20 21 22 23
27 28 29 31 32 32 33 34 34 33 33 33 32 33 35 37 38 39 39 40 41 40 39 37 35 34 32 30 28 26 24 23 23 23 22 21 20 20 20 20 21 21 23
29 31 31 33 34 34 34 35 34 34 33 33 33 34 36 36 37 39 40 39 40 41 41 40 37 35 33 32 30 27 25 24 23 22 23 22 21 21 21 20 20 21 21
31 33 34 36 37 37 37 37 36 35 33 33 34 34 35 35 35 36 38 38 39 41 42 41 37 35 35 33 30 28 26 25 24 23 23 22 22 21 21 19 19 19 20
33 35 37 38 39 40 40 40 38 36 35 33 32 33 33 33 34 36 37 37 39 40 40 39 38 37 36 34 31 28 26 26 25 24 23 23 22 21 20 19 19 19 19
35 37 39 40 42 42 43 42 39 38 36 34 32 32 32 31 32 35 35 34 36 39 38 39 39 37 35 34 32 30 28 26 25 25 24 22 22 21 20 19 18 18 18
37 39 41 43 44 44 44 42 41 39 38 37 35 34 33 32 32 34 34 33 34 35 36 38 38 37 36 34 33 31 28 27 26 25 24 23 22 21 20 19 17 17 17
39 41 43 44 44 43 43 42 41 40 39 38 37 37 35 34 33 34 33 33 34 35 36 37 37 37 37 35 33 31 30 28 27 25 24 24 23 22 20 18 17 16 16
39 40 41 41 40 40 40 40 40 40 40 40 39 39 37 35 34 33 32 32 33 33 34 34 37 38 37 35 34 32 30 29 27 26 25 25 24 22 21 19 17 16 16
36 37 38 38 38 39 40 40 41 41 41 41 41 40 38 37 35 35 33 32 33 32 33 34 35 37 36 35 35 32 30 30 28 27 26 26 25 23 22 20 18 17 16
34 36 37 38 39 40 42 43 43 44 45 45 44 43 41 40 38 36 36 35 35 34 33 33 34 36 35 35 34 32 31 30 29 29 28 27 26 25 23 22 20 18 17
36 38 40 41 42 43 45 46 47 48 48 48 47 46 45 44 42 40 38 36 36 37 36 35 34 36 36 36 35 34 32 32 32 31 30 29 28 27 25 24 22 19 18
39 41 42 43 45 47 48 49 50 51 51 51 50 49 48 47 46 44 42 41 39 40 40 39 37 38 38 37 37 35 34 34 34 34 33 32 31 29 27 26 24 21 19

GEFSSE_500_meanwind_054.txt.gz
Wind_Speed
11 10 10 9 9 9 9 9 9 10 10 11 12 12 12 12 11 10 10 9 9 9 9 9 8 7 7 6 6 6 6 6 6 6 6 6 6 6 6 6 7 7 7
13 12 11 10 9 9 8 8 9 9 10 11 12 12 12 12 12 12 11 10 9 9 9 9 9 8 7 6 6 6 6 6 5 5 5 5 4 4 4 4 5 6 6
13 12 11 10 9 9 8 8 8 8 9 10 11 12 12 13 12 12 12 11 11 10 9 9 8 8 7 6 6 6 6 5 5 4 4 3 3 3 3 3 4 4 5
12 12 11 10 9 8 7 7 8 8 9 10 11 11 12 12 13 13 12 12 12 12 11 10 9 8 7 7 6 6 6 5 5 4 3 2 2 1 1 2 2 2 3
11 11 11 10 9 9 8 8 8 8 9 10 10 11 11 12 13 13 13 13 14 13 12 11 10 9 8 8 7 7 7 6 5 5 4 3 2 1 1 0 1 1 2
12 11 10 10 10 9 9 9 9 10 10 11 12 12 12 12 13 14 14 14 15 15 14 13 13 12 11 10 10 9 9 8 7 6 4 5 4 3 2 1 1 1 2
12 11 10 10 10 10 10 11 12 13 14 14 14 14 14 15 15 15 15 16 16 16 16 15 15 14 14 13 13 12 12 11 10 8 7 7 6 5 4 3 3 3 3
12 11 11 11 11 11 12 13 15 16 17 18 18 18 18 18 18 18 18 18 18 18 18 18 17 17 16 16 16 16 15 15 14 12 10 10 9 8 7 6 5 5 5
14 14 13 13 14 14 15 16 18 19 20 21 22 22 22 23 23 23 23 22 22 21 20 20 20 19 19 19 19 19 19 18 18 16 14 13 12 11 10 9 9 8 8
16 17 17 17 17 18 18 19 20 21 22 23 24 25 26 26 27 27 27 27 26 25 24 23 23 22 22 22 22 22 22 22 21 20 18 16 16 15 14 13 12 11 11
20 19 19 19 20 20 21 22 23 23 24 25 26 27 28 29 29 30 30 30 29 29 28 27 26 25 25 25 25 25 25 25 25 23 21 20 20 18 17 16 15 15 14
22 22 22 22 23 23 23 24 25 25 26 28 28 29 30 30 31 31 31 31 32 32 31 30 30 28 28 27 28 27 27 28 27 26 25 23 23 21 20 19 18 18 17
23 24 25 24 25 26 25 26 27 28 28 29 29 30 31 33 33 34 34 33 33 34 34 33 33 32 31 31 31 30 30 30 30 29 26 25 25 24 22 21 20 20 19
25 27 28 28 27 29 29 29 29 31 32 31 32 32 33 34 35 36 37 36 35 35 36 37 36 35 35 34 33 32 32 32 31 30 28 26 26 25 23 22 21 21 20
29 30 31 31 31 32 33 33 33 34 34 35 36 36 36 37 37 37 36 38 38 38 37 37 37 37 36 35 35 34 33 33 31 30 28 27 26 25 24 23 22 22 21
32 33 34 34 34 35 36 36 36 37 38 39 40 40 40 39 38 38 38 38 38 38 37 36 38 38 36 36 36 35 35 34 32 30 29 29 28 26 25 23 22 21 20
35 34 35 36 36 37 38 39 40 41 42 42 42 43 42 41 40 39 38 37 37 37 37 37 37 38 37 37 36 36 35 34 32 31 29 29 28 28 26 24 22 22 21
34 35 36 38 38 39 40 41 42 43 44 44 44 44 43 42 41 39 38 37 37 36 36 35 35 36 37 37 37 35 34 33 33 31 29 29 28 27 25 24 23 22 21
33 34 36 38 39 40 42 44 45 46 46 46 45 45 44 42 41 39 38 38 37 36 36 35 34 35 35 35 35 35 35 34 32 30 28 28 28 27 26 24 23 22 21
32 34 36 38 40 41 43 45 46 46 46 47 46 45 43 42 41 39 39 38 37 37 37 36 36 35 35 35 35 35 35 35 33 30 28 27 27 27 26 24 23 22 21
32 35 37 39 41 43 45 45 46 46 47 47 46 45 42 41 41 41 40 39 39 39 38 37 37 36 35 35 35 34 33 34 33 30 28 27 27 27 26 25 23 23 22
33 35 37 39 40 42 43 44 45 45 46 46 46 45 44 42 42 43 43 42 42 41 40 38 38 35 33 34 33 33 33 32 33 31 29 28 28 27 27 26 25 24 22
31 33 35 36 38 40 42 43 45 46 46 46 46 46 45 44 44 44 45 45 44 43 41 39 37 35 35 34 33 33 32 32 31 30 31 29 29 28 28 27 26 25 24
31 33 35 36 38 40 42 44 45 46 46 46 47 47 47 47 46 45 45 46 45 45 43 41 40 38 37 36 34 33 34 33 32 31 31 31 30 30 30 29 27 26 25
33 35 37 37 38 40 42 44 44 45 46 47 47 47 46 46 45 45 45 45 45 44 44 43 41 40 39 38 37 34 34 35 34 32 31 32 32 32 31 31 29 28 27
34 36 38 39 39 40 41 43 44 45 45 46 46 46 45 44 44 43 43 43 42 43 43 43 42 41 40 39 39 38 37 35 34 34 34 33 33 33 33 33 31 30 29

GEFSSE_500_meanwind_060.txt.gz
Wind_Speed
7 7 7 6 6 5 6 5 5 5 6 7 8 8 9 9 10 10 10 10 10 11 11 12 12 12 11 10 9 8 8 7 7 7 6 6 6 5 6 7 8 9 9
6 7 6 6 5 5 5 5 5 5 5 6 6 7 7 8 8 9 9 9 9 10 10 10 11 11 11 10 9 8 8 7 6 5 5 5 5 5 5 5 6 7 8
6 6 6 5 5 5 5 5 5 5 5 5 6 6 7 7 7 7 8 8 8 9 9 9 9 10 10 10 10 9 8 7 6 5 4 3 3 4 4 4 5 5 7
5 6 6 5 5 5 5 5 5 5 5 6 6 7 7 8 8 8 8 8 8 8 9 9 9 9 9 9 9 9 8 8 7 5 4 2 2 2 2 3 4 4 5
6 6 6 5 6 6 6 6 6 6 6 7 8 8 9 9 9 9 9 9 9 9 9 9 10 9 9 9 9 9 9 8 7 6 5 3 1 0 1 2 3 4 5
6 6 6 6 6 6 6 7 7 7 8 8 9 9 10 10 10 10 10 10 11 11 11 11 11 11 10 10 10 10 9 9 8 7 6 4 3 1 2 2 3 4 5
6 6 6 6 7 8 8 9 10 10 10 10 10 10 11 11 11 12 12 12 13 13 13 13 13 13 13 12 11 11 10 10 10 9 7 6 5 4 3 4 4 5 5
6 6 7 8 9 10 11 12 12 12 12 12 13 13 13 13 14 14 14 15 15 15 15 15 15 15 15 15 14 14 13 12 12 11 10 9 8 7 6 6 5 6 6
7 7 8 9 10 12 12 12 13 13 14 14 14 15 15 15 16 16 17 17 17 17 17 17 17 18 18 18 18 17 16 15 15 14 13 12 11 10 9 8 8 7 7
8 9 10 11 12 12 13 14 15 15 15 15 16 16 17 17 18 18 18 19 19 19 20 20 20 20 21 21 21 21 20 19 18 17 16 16 15 13 12 11 10 10 9
10 11 12 12 13 14 15 15 16 16 17 17 18 18 18 19 19 20 20 21 21 22 22 23 23 23 23 23 24 24 23 23 22 20 19 19 18 17 16 15 14 12 11
13 14 14 14 14 15 16 17 18 18 19 20 21 21 21 22 22 23 23 23 24 25 25 25 25 25 25 26 26 26 27 27 25 24 23 22 21 20 19 19 17 16 15
15 16 18 17 17 18 19 20 21 21 22 23 23 24 24 25 26 26 27 26 27 28 28 27 27 26 27 28 28 29 29 30 29 28 25 24 24 24 23 22 21 19 18
19 20 22 21 21 21 23 23 24 24 25 26 26 27 27 28 28 29 30 29 29 29 30 30 30 28 27 28 29 31 31 30 31 31 29 27 26 26 25 25 25 23 21
23 23 24 23 24 25 26 26 26 27 27 28 29 29 30 30 31 32 31 31 31 30 31 32 31 29 28 28 29 30 32 32 31 32 30 29 28 28 28 28 28 26 23
26 25 25 26 27 28 29 28 29 29 30 31 32 32 32 32 33 33 33 34 33 32 32 31 30 30 29 29 29 29 31 32 31 30 30 30 30 29 29 29 28 26 25
27 27 27 27 29 30 30 31 32 33 34 35 35 35 35 35 35 34 35 35 34 34 33 32 30 29 28 29 29 29 29 30 31 31 31 30 30 30 30 29 29 28 27
26 27 27 28 29 29 30 31 33 34 36 37 37 37 37 37 36 36 36 36 36 36 35 33 32 31 29 29 28 27 27 28 30 30 31 30 30 31 31 29 28 29 28
25 26 27 28 29 30 31 33 35 36 38 39 39 39 39 39 38 39 38 38 37 36 35 34 33 31 30 29 28 28 28 28 28 29 30 30 29 30 30 30 30 29 29
25 26 27 29 30 32 33 35 37 38 39 40 41 41 40 41 41 40 40 39 38 37 36 36 34 33 32 31 30 30 30 29 29 30 30 30 30 30 31 31 31 30 30
24 25 27 29 30 32 34 35 37 38 40 40 41 41 41 42 41 41 41 40 39 39 38 37 36 35 34 33 32 31 31 30 30 30 29 30 30 31 31 30 30 30 30
22 24 26 28 30 32 34 36 37 39 40 41 41 42 42 42 41 41 40 40 40 40 40 39 38 36 36 36 35 33 32 31 31 30 29 29 29 31 31 31 31 30 32
21 23 25 27 30 32 34 36 37 39 40 40 41 41 41 41 41 41 40 40 40 40 40 40 39 38 36 36 36 35 34 32 32 31 29 29 29 30 32 31 32 32 33
20 22 24 26 29 31 33 35 37 38 38 39 39 39 39 39 39 39 39 38 38 38 38 39 39 38 37 36 36 36 35 33 31 31 30 29 29 30 33 34 33 33 34
20 22 24 25 27 29 30 32 34 36 37 38 38 39 39 38 38 37 36 35 34 34 34 35 36 36 36 36 36 36 36 35 33 32 30 29 30 30 33 33 34 34 35
22 25 26 27 28 29 31 32 33 34 35 36 37 37 37 37 37 36 35 34 33 33 32 32 32 33 34 35 35 35 36 35 34 33 32 31 31 32 33 34 35 35 35

GEFSSE_500_meanwind_066.txt.gz
Wind_Speed
4 4 4 4 4 4 4 4 5 5 5 5 6 6 6 6 7 7 7 8 8 9 9 10 11 11 12 11 11 11 10 9 8 7 7 7 6 6 6 6 7 8 8
4 4 4 4 4 4 4 4 4 4 4 4 4 4 5 5 5 5 5 5 6 6 7 8 8 9 10 10 10 9 9 8 7 7 6 6 5 5 5 5 6 7 8
5 5 5 4 4 3 4 4 4 4 4 3 3 3 3 3 3 3 3 3 4 4 5 6 6 7 7 8 8 8 7 7 6 5 5 4 4 4 4 4 5 6 7
5 5 5 4 3 3 4 3 4 4 4 4 3 3 3 3 3 3 4 4 4 4 4 5 5 5 5 6 6 6 6 5 5 4 3 3 3 3 3 4 4 5 6
5 5 4 3 3 3 3 3 4 4 5 5 5 4 4 5 5 5 6 6 6 6 6 6 6 6 5 5 5 5 5 4 3 2 2 1 2 3 3 3 4 5 6
6 5 4 3 3 3 4 4 5 5 6 6 6 6 6 7 7 7 8 8 9 9 9 8 8 8 8 8 7 7 6 5 3 2 1 0 2 3 3 4 4 5 5
6 6 6 5 4 5 5 6 7 7 7 7 7 8 8 9 9 9 9 10 11 11 11 11 11 12 11 11 11 10 9 8 6 5 4 3 3 3 4 4 5 5 6
7 8 8 7 6 6 7 8 8 8 8 8 8 9 9 9 10 10 11 12 13 13 13 13 13 14 14 14 14 14 14 12 10 9 7 6 5 5 5 6 6 6 7
9 9 9 8 8 8 9 9 9 9 9 9 10 10 11 11 12 12 13 14 15 15 15 16 16 16 16 16 16 17 17 16 15 13 11 10 8 8 7 7 8 8 8
11 11 11 11 11 11 10 10 11 11 11 12 12 12 13 13 14 14 15 16 17 17 18 18 18 19 19 19 19 19 19 19 19 17 15 14 12 11 11 10 10 10 10
13 13 13 13 13 12 12 13 13 13 14 14 15 15 16 16 17 17 18 19 20 20 21 21 21 21 22 22 22 21 21 22 21 21 20 18 16 15 14 13 13 12 12
16 16 16 17 17 16 16 16 17 17 17 18 19 19 19 19 19 20 20 21 22 23 23 24 23 24 24 24 24 24 23 23 23 24 24 22 20 19 18 17 16 16 15
20 20 19 20 20 20 20 20 20 21 22 22 22 22 22 22 22 22 22 23 24 25 25 25 25 26 25 26 26 24 25 25 25 26 26 26 25 23 22 21 20 19 18
22 22 22 23 23 24 25 24 23 24 24 25 25 24 24 24 24 23 24 26 27 27 27 27 26 27 27 28 27 25 24 24 25 26 27 28 28 27 26 25 24 23 22
22 23 24 24 25 26 26 26 26 26 26 26 25 25 25 25 25 26 27 28 28 29 29 29 29 29 29 29 29 27 26 25 25 26 27 28 29 29 28 28 26 26 25
22 22 23 24 25 24 25 26 25 24 25 26 26 26 26 26 27 29 29 30 30 30 31 31 31 31 30 30 29 29 28 27 28 28 27 27 29 30 29 29 29 29 28
20 21 21 22 23 24 24 25 26 27 27 27 28 28 29 29 31 32 32 32 32 32 32 32 31 31 32 31 31 30 29 29 29 29 29 28 29 30 30 30 30 29 30
18 19 20 21 22 23 24 25 26 27 27 28 29 29 30 31 31 32 33 32 33 33 34 34 33 33 33 33 32 31 31 30 29 29 29 29 29 28 29 31 31 31 30
18 19 20 21 22 23 24 25 26 27 28 28 29 30 30 31 32 32 33 33 34 35 35 35 35 34 34 33 33 32 31 31 31 30 30 30 30 29 29 31 32 32 33
17 18 19 20 21 22 23 24 26 27 28 29 30 30 31 32 33 34 34 35 35 36 36 35 35 35 35 34 33 33 32 31 31 31 30 30 30 30 29 31 32 32 32
17 19 20 21 22 24 25 26 27 29 30 30 31 32 33 33 34 34 35 36 36 36 36 37 36 36 36 36 35 34 33 33 32 32 32 32 32 32 31 31 33 32 32
18 19 20 21 23 25 26 28 29 30 31 32 32 32 33 33 34 34 35 35 35 36 36 37 37 37 36 37 36 35 35 35 35 33 33 33 33 33 32 31 32 33 33
18 19 21 23 25 27 28 30 31 32 33 33 33 34 34 34 34 34 34 35 35 35 36 36 36 36 36 36 36 36 36 36 37 35 34 34 34 34 34 33 32 34 34
19 21 22 24 26 27 28 30 31 32 33 33 34 34 35 34 34 34 34 34 34 35 35 36 36 36 35 36 36 36 36 36 36 36 35 35 35 35 34 34 34 35 35
19 21 22 23 25 27 28 29 30 30 31 32 33 33 34 34 34 34 34 34 34 34 35 35 36 36 36 36 36 36 35 35 36 36 36 37 37 36 36 35 34 36 35
19 20 22 23 25 26 27 28 28 29 29 30 31 31 32 33 33 34 34 34 35 35 35 35 35 36 36 36 36 36 36 35 35 35 35 37 38 37 37 36 35 35 36

GEFSSE_500_meanwind_072.txt.gz
Wind_Speed
2 2 2 1 1 1 1 1 1 2 3 4 4 5 5 6 6 6 5 5 6 6 6 6 7 7 7 7 7 6 6 5 5 4 4 5 5 5 5 5 5 6 7
1 2 1 1 1 2 2 2 2 2 2 3 3 4 4 4 4 3 3 3 3 3 3 3 3 4 4 5 5 5 5 4 4 3 3 4 4 5 5 5 5 6 6
1 1 1 1 2 3 3 4 3 3 3 3 3 3 3 3 2 2 2 2 1 1 0 0 1 1 1 2 3 3 3 3 2 2 2 3 4 4 4 4 4 5 6
1 1 1 2 3 4 5 5 5 5 4 4 4 4 4 4 4 4 3 3 3 3 3 3 3 2 2 1 1 1 1 1 1 1 2 2 3 4 4 4 4 5 6
2 3 3 4 5 6 6 6 7 6 6 6 6 6 6 6 6 6 6 5 5 6 6 5 5 5 5 4 3 3 2 1 1 1 2 2 3 4 4 5 5 5 6
3 4 5 6 6 7 8 8 8 8 8 8 9 9 8 8 8 8 8 7 7 7 7 7 8 8 8 7 7 6 5 4 4 3 3 4 4 5 5 6 6 6 6
4 5 6 8 9 9 10 10 10 10 10 10 10 10 10 10 10 9 9 9 9 9 9 9 9 9 9 9 10 9 9 8 7 6 6 6 6 6 7 7 8 8 8
6 7 8 9 10 11 12 12 12 12 12 12 12 12 12 11 11 10 11 11 11 11 11 11 11 11 11 11 11 12 12 12 11 10 9 9 8 8 8 9 9 10 10
8 9 11 12 13 13 14 14 14 14 14 14 14 13 13 13 12 13 13 13 12 12 12 13 13 13 13 13 13 14 14 15 14 13 13 12 11 11 11 11 11 12 12
10 12 14 15 15 15 16 16 16 16 16 16 16 16 16 16 16 15 15 15 15 14 14 15 14 15 15 15 15 15 16 17 17 17 16 15 15 15 14 14 14 14 14
13 15 16 17 17 17 18 19 19 19 20 19 19 20 20 20 20 19 18 18 18 17 17 17 17 17 17 17 17 17 17 18 19 20 20 19 19 19 18 17 16 16 16
17 17 18 19 20 20 20 21 21 21 21 21 22 22 23 24 24 23 22 21 21 20 20 20 19 19 19 19 19 18 18 18 19 21 22 22 22 22 21 20 20 19 19
20 20 21 22 23 23 23 24 24 24 24 24 25 26 27 27 28 27 25 25 24 24 23 22 22 21 20 20 20 20 19 19 19 20 21 23 23 24 24 24 23 22 22
21 22 23 23 24 25 25 25 25 26 27 27 28 29 28 28 28 29 27 26 26 25 25 25 24 23 23 22 22 21 21 20 20 20 22 23 25 25 26 26 27 25 25
23 23 23 23 24 24 24 24 24 25 26 27 28 27 26 26 26 26 27 26 25 25 25 25 25 25 24 24 24 23 23 22 21 21 21 22 24 26 26 27 29 30 28
22 22 22 22 24 24 22 22 22 21 21 22 23 24 24 25 26 26 26 26 26 26 26 26 27 27 27 26 26 25 25 24 23 24 23 23 24 25 26 28 30 31 32
21 21 21 21 21 21 19 19 18 19 20 21 22 22 23 23 24 25 25 25 26 27 27 28 29 29 29 29 28 28 27 27 26 26 25 24 25 25 26 28 30 32 33
19 19 19 17 17 16 16 18 18 19 20 21 22 23 23 23 22 23 24 25 25 26 28 29 29 30 31 31 30 30 30 29 28 28 28 27 27 27 28 28 29 33 34
17 17 16 16 15 15 16 17 18 18 19 20 21 22 23 23 23 24 25 26 27 28 28 29 30 31 32 32 31 31 31 31 31 31 30 30 29 29 30 30 30 32 35
15 14 15 15 15 15 16 16 17 18 19 21 21 22 23 23 23 25 26 26 28 29 30 30 31 31 32 31 32 33 33 33 33 33 33 32 32 31 31 31 31 32 33
12 12 13 14 14 15 16 17 18 19 20 22 22 23 23 24 24 25 26 26 27 28 29 30 31 31 32 32 33 33 33 34 34 34 34 34 34 33 33 33 33 33 34
11 11 12 13 14 15 17 18 20 21 22 23 23 23 24 24 24 25 25 25 26 27 28 28 29 30 31 31 32 33 33 34 35 35 35 35 35 35 35 35 35 34 36
10 12 13 15 16 17 19 20 21 22 23 23 24 24 24 24 24 25 24 25 26 27 28 28 29 29 30 31 31 32 33 34 35 36 36 37 36 36 35 36 36 36 36
11 13 15 16 18 20 21 22 22 23 23 24 24 24 24 24 24 24 24 25 26 27 28 28 29 30 31 32 32 33 33 34 35 36 36 37 38 37 37 37 37 37 37
13 15 17 18 19 20 21 22 22 23 23 24 24 24 24 24 24 24 25 26 26 27 28 29 30 31 31 32 33 34 34 35 35 36 37 38 38 39 39 39 39 39 39
15 16 18 19 20 20 21 21 22 23 23 23 23 23 24 24 25 25 25 26 27 28 29 30 30 31 32 33 34 35 36 36 37 37 37 39 39 39 39 40 40 40 40

GEFSSE_500_meanwind_078.txt.gz
Wind_Speed
4 4 3 2 1 1 2 3 3 4 4 4 3 3 3 2 2 2 1 1 1 1 2 3 3 3 4 4 4 4 4 5 5 5 4 4 4 5 5 5 5 5 5
5 4 3 3 2 2 3 4 4 5 5 5 5 5 4 4 4 4 4 4 3 3 2 2 3 3 3 3 3 4 4 4 4 4 4 3 3 4 4 4 4 4 4
5 5 4 4 3 3 4 5 6 6 6 7 6 6 6 6 6 6 6 6 6 5 5 4 4 4 3 3 3 3 3 3 3 3 2 2 2 2 3 3 4 4 4
6 5 5 4 5 5 6 6 7 8 8 8 8 8 9 9 9 9 9 9 8 8 7 7 6 6 5 5 4 4 4 4 3 3 2 1 0 1 1 2 3 3 3
6 5 5 6 6 6 7 8 8 9 10 10 10 11 11 11 11 11 11 11 10 10 9 9 8 8 8 8 7 6 6 5 4 3 3 2 1 1 1 1 2 2 2
6 6 6 6 7 7 8 9 10 11 11 12 12 13 13 13 13 13 13 12 12 12 11 11 10 10 9 9 9 9 8 7 6 5 4 4 3 2 2 2 2 2 2
7 7 6 7 7 8 10 11 12 13 13 14 14 14 14 15 15 15 15 14 14 13 13 12 12 12 11 11 11 11 11 10 9 7 6 6 5 4 4 3 3 3 3
6 7 7 8 9 10 12 13 13 14 15 15 15 16 16 16 16 16 16 16 16 15 15 14 14 14 14 13 13 13 13 12 12 10 9 8 7 7 6 5 5 5 5
7 8 9 10 11 12 13 14 15 16 16 16 17 18 18 18 18 18 18 18 18 18 17 17 16 16 15 15 15 15 14 14 14 13 12 11 10 9 9 8 8 8 7
9 9 10 12 12 13 14 15 16 17 18 19 19 20 20 21 20 20 20 21 21 20 19 19 19 18 17 17 17 16 16 15 15 15 14 14 14 12 12 11 10 10 10
11 11 12 13 15 15 16 17 18 19 20 21 22 22 22 23 23 23 23 23 23 23 22 22 21 21 20 19 19 19 18 18 18 17 15 16 17 16 15 14 14 13 12
13 14 14 16 17 18 19 20 21 22 23 23 24 25 25 25 24 24 24 25 26 26 25 25 24 23 22 22 21 21 20 20 20 19 18 17 18 18 18 17 17 17 16
16 17 17 18 19 20 20 21 22 23 24 25 24 24 26 26 25 25 24 23 24 25 25 26 27 26 25 24 22 21 21 22 22 22 20 18 19 20 20 20 20 19 19
17 18 18 19 20 20 21 22 23 24 24 24 24 25 25 25 24 24 23 23 23 23 24 25 27 28 26 24 24 23 21 20 22 23 21 19 19 19 21 21 22 22 21
18 19 19 19 19 20 21 22 23 23 23 22 22 22 21 22 22 21 22 22 22 23 23 23 24 25 23 23 23 23 22 21 21 22 22 20 20 19 20 21 23 24 24
18 18 19 18 18 19 21 21 20 20 20 20 21 20 21 21 20 20 21 22 22 23 23 22 23 23 23 23 22 22 22 22 22 22 22 22 21 20 20 21 22 24 25
18 19 19 19 18 18 18 18 17 18 17 19 19 18 19 20 21 21 21 22 23 23 23 22 23 23 24 25 24 23 23 24 24 24 24 24 23 23 22 22 23 24 26
18 18 17 16 16 16 16 16 16 17 18 18 18 18 20 21 21 22 23 23 23 23 23 23 23 24 24 24 25 25 26 26 25 26 26 26 26 25 24 23 23 24 26
16 16 15 14 14 14 15 16 16 16 16 17 18 19 20 21 22 24 23 23 23 22 22 23 23 24 24 25 26 26 27 26 26 28 28 28 28 27 26 26 26 25 26
15 14 14 13 13 13 14 15 15 16 16 17 19 20 21 21 22 23 23 22 23 23 23 23 24 24 25 25 25 26 27 27 27 28 28 28 28 28 28 28 28 28 28
13 13 13 13 13 14 14 15 15 16 17 18 19 20 21 21 21 22 22 21 22 22 23 23 24 24 25 25 25 26 27 27 27 28 28 29 29 29 29 30 30 30 30
12 12 11 11 13 14 14 15 15 16 17 17 19 19 20 20 20 20 21 21 21 22 22 23 24 24 25 25 26 26 27 28 28 28 29 30 30 31 31 31 31 31 32
10 9 10 10 11 12 14 15 15 17 18 18 19 19 19 20 20 20 21 22 22 22 22 23 24 24 25 26 27 27 27 28 29 29 29 30 31 32 32 32 32 32 32
8 8 8 10 11 13 14 15 17 17 18 19 19 19 20 20 20 21 21 22 22 22 23 23 24 25 25 26 27 27 28 29 30 30 30 30 31 32 33 33 33 33 33
6 7 9 10 12 13 15 16 18 19 19 20 20 20 21 21 21 22 22 22 23 23 24 24 25 25 26 27 27 28 29 30 31 31 32 32 32 33 33 34 34 34 35
7 9 10 11 13 15 16 18 19 20 20 21 21 21 22 22 22 22 23 24 24 24 25 25 26 27 27 28 29 29 30 31 32 33 33 33 34 34 34 35 35 35 35

GEFSSE_500_meanwind_084.txt.gz
Wind_Speed
1 1 2 2 2 1 2 2 3 4 4 5 5 6 7 7 7 7 7 7 7 7 7 7 7 7 7 7 7 7 7 7 6 6 6 6 6 6 6 7 7 7 7
2 2 3 3 2 1 1 1 2 3 3 4 5 6 7 7 8 8 8 8 8 8 8 8 8 7 7 7 6 6 7 6 6 5 5 5 5 5 5 6 6 7 7
3 3 3 3 3 2 1 1 1 2 3 4 5 6 7 8 8 8 9 9 9 9 9 9 8 8 7 7 7 6 6 6 6 5 4 4 4 4 4 5 6 6 7
3 3 3 4 3 3 2 2 2 3 4 4 6 7 8 8 9 10 10 10 10 10 10 10 9 9 8 7 7 6 6 6 5 5 4 3 2 2 3 4 5 6 6
3 3 3 4 4 3 3 3 4 4 4 5 6 7 8 9 10 10 10 10 10 10 11 11 10 10 9 8 7 7 6 6 6 5 4 3 1 1 2 3 4 5 5
3 3 4 4 4 4 4 4 5 5 5 6 6 7 8 10 11 11 11 11 11 11 11 11 11 11 10 10 9 8 7 7 7 6 5 3 2 1 2 3 4 4 5
3 3 4 4 4 5 5 5 5 5 6 7 8 9 9 10 11 11 12 12 13 13 13 13 13 13 12 11 10 9 9 8 8 8 7 6 4 3 3 3 4 4 5
3 3 4 4 5 5 5 5 6 6 7 8 9 10 11 12 12 13 14 14 15 15 15 15 15 15 14 13 12 11 11 10 9 9 8 7 6 6 5 5 5 5 5
3 3 4 4 5 6 6 6 7 8 9 9 10 11 13 14 15 15 16 17 17 17 17 17 17 17 16 15 15 14 12 12 11 10 10 9 8 8 8 7 7 6 6
4 4 4 5 6 6 7 8 9 10 11 12 12 13 14 15 16 17 18 18 19 19 20 20 20 20 19 18 18 17 15 14 13 12 12 11 11 11 10 10 9 9 8
5 5 5 7 7 8 9 10 11 13 14 15 15 16 16 17 18 18 19 20 20 20 21 21 21 21 21 21 21 20 19 17 15 14 14 14 13 12 12 12 11 11 10
6 6 6 7 8 10 11 12 13 14 16 17 18 18 18 19 19 19 19 19 19 20 20 21 21 21 23 23 23 23 22 20 18 16 16 16 15 14 15 15 14 13 13
6 6 7 8 10 10 12 13 14 15 16 17 18 18 19 20 20 18 18 18 18 18 18 19 19 21 22 23 24 24 23 23 20 18 18 18 18 17 16 16 16 16 15
7 7 8 9 10 11 12 13 14 14 15 17 17 18 18 18 18 17 17 17 18 17 17 18 18 19 20 22 24 24 23 22 22 21 20 20 19 18 17 17 17 17 16
7 7 8 9 10 11 12 13 14 14 15 15 16 16 16 15 15 15 15 16 16 16 16 17 18 19 19 20 22 23 23 22 22 21 20 19 18 17 18 18 18 19 18
7 8 8 10 11 12 12 12 13 13 13 14 14 14 14 14 14 13 13 14 15 15 16 17 18 18 19 20 21 22 23 23 21 22 21 20 19 19 18 19 19 20 21
8 8 9 10 11 12 12 12 12 12 12 12 12 12 13 12 12 12 13 14 15 16 17 17 17 18 18 19 20 21 22 22 22 22 22 21 20 19 19 19 19 21 21
8 9 10 9 9 10 10 10 10 9 9 10 11 12 12 12 12 13 14 15 16 17 16 17 18 18 18 18 18 19 20 21 22 23 23 22 22 21 21 21 20 21 22
7 8 8 8 8 8 8 8 8 9 9 10 10 11 11 12 13 13 14 15 15 16 16 16 17 18 18 17 17 18 19 20 22 22 23 23 22 23 23 23 23 23 23
7 7 7 7 7 7 7 8 8 9 9 10 10 11 12 12 12 13 13 14 14 14 14 15 15 16 16 16 16 17 18 19 21 22 22 23 23 23 24 25 25 25 25
7 6 6 6 6 6 7 8 8 9 9 9 10 10 11 11 11 12 12 12 13 14 14 14 14 15 15 15 16 17 18 19 20 21 22 22 23 24 25 25 26 27 27
6 4 4 5 5 6 7 8 8 8 9 9 9 10 11 11 11 12 12 13 13 14 14 14 15 15 15 16 17 18 19 20 20 21 22 23 24 25 25 26 27 28 29
4 3 3 3 4 5 6 7 7 7 8 8 8 9 10 11 12 12 13 13 14 14 15 15 15 16 16 17 17 18 19 21 21 22 22 23 24 25 26 26 27 28 29
2 1 2 2 3 4 5 6 6 7 7 8 8 9 10 11 12 13 13 14 15 16 16 16 17 17 17 18 18 19 20 21 22 23 24 24 25 26 27 27 28 29 30
1 1 1 2 3 4 5 6 6 7 7 7 8 9 10 11 12 13 14 15 16 17 17 17 17 18 18 19 20 20 20 21 22 23 25 25 26 27 28 29 29 30 32
0 1 1 2 3 4 5 5 6 7 8 8 9 10 11 12 13 14 15 16 17 18 19 19 19 20 20 21 21 22 23 24 24 25 26 27 28 28 29 30 31 31 32

GEFSSE_500_meanwind_090.txt.gz
Wind_Speed
3 3 3 4 4 4 5 6 6 7 7 6 6 6 6 6 7 7 7 7 8 8 8 8 8 8 9 9 9 9 9 9 8 8 8 7 7 6 6 6 7 7 7
4 4 4 4 4 4 4 4 5 5 4 4 4 4 4 5 5 6 6 6 7 7 7 7 7 7 7 7 7 7 8 8 8 7 7 6 6 6 5 5 6 6 7
5 5 5 6 5 4 3 3 3 3 2 2 2 3 3 4 5 5 6 6 6 6 7 7 7 7 7 6 6 6 7 7 6 6 6 5 5 5 4 4 5 6 6
5 7 7 7 6 5 4 3 2 1 0 1 2 3 3 4 5 6 6 6 6 6 6 6 6 7 6 6 5 5 5 5 5 5 4 4 3 4 4 4 4 5 6
7 8 8 7 6 5 4 3 2 1 1 2 3 4 4 5 6 7 7 7 7 7 6 6 6 6 6 6 5 4 4 4 3 3 3 3 2 2 3 3 4 4 5
8 9 9 8 7 6 6 4 3 2 3 3 4 5 6 7 7 8 8 9 8 8 8 7 7 7 7 6 5 5 4 4 3 3 2 1 1 1 2 3 4 4 4
10 10 10 9 8 7 6 5 4 4 4 5 6 6 7 8 9 9 10 10 10 11 10 10 9 9 8 7 7 6 6 5 4 4 3 2 1 2 2 3 3 4 4
11 11 11 10 8 7 6 5 5 5 6 6 7 8 9 10 10 11 12 12 12 13 13 13 12 11 11 9 9 8 8 7 6 5 5 4 3 3 3 4 4 5 5
12 12 11 10 9 7 6 6 6 6 7 8 9 10 10 11 13 13 13 14 14 15 15 15 15 13 13 12 11 10 10 9 9 8 7 6 6 5 5 6 6 6 6
13 12 12 10 9 8 7 7 7 8 9 10 10 11 13 13 14 15 15 16 17 17 17 17 16 16 15 14 13 13 12 11 11 10 9 9 8 8 7 8 9 8 8
14 13 12 11 9 8 8 8 8 9 10 11 12 13 14 15 15 16 17 17 17 18 18 18 17 17 16 16 15 15 14 14 13 13 12 11 10 10 10 10 11 11 11
15 14 13 11 10 9 9 9 9 10 11 11 12 13 14 15 16 16 17 17 18 18 18 18 18 17 17 17 16 16 16 16 16 15 14 13 13 12 12 11 12 13 13
16 15 14 13 11 10 10 10 10 10 11 11 12 14 14 14 15 15 16 17 17 17 17 17 17 17 16 16 16 16 16 16 16 16 16 16 15 14 14 14 14 15 14
19 17 16 15 13 11 10 10 10 10 11 12 13 14 14 14 14 15 15 16 16 16 16 16 16 16 16 15 15 15 16 16 17 17 17 17 16 16 16 16 15 16 16
19 17 16 14 13 11 9 9 9 10 11 12 13 13 14 14 14 14 15 15 15 15 15 15 15 16 16 15 15 16 16 16 16 17 17 18 18 17 17 17 16 16 17
18 17 16 14 12 10 9 9 9 10 11 11 12 13 13 14 14 14 14 13 14 15 16 16 16 16 16 16 16 16 16 16 16 16 17 18 19 19 19 19 18 17 18
17 15 14 12 10 9 8 8 9 10 10 11 12 12 12 12 12 13 13 13 13 14 15 16 16 16 16 16 16 16 16 16 16 16 17 18 18 19 20 20 19 19 18
14 13 12 10 8 7 7 7 7 8 9 10 10 10 10 9 10 10 11 12 12 13 13 14 15 15 15 16 16 16 16 16 16 16 16 17 18 19 20 20 20 20 20
14 13 12 9 8 7 6 5 6 7 8 8 9 9 8 9 9 9 10 10 10 11 12 13 14 14 15 15 16 16 16 15 15 16 16 17 19 19 20 21 21 22 22
13 11 11 8 7 6 5 5 5 6 7 7 8 8 7 8 8 9 9 9 10 11 12 13 13 13 14 15 15 15 15 15 15 16 16 17 18 19 21 21 22 23 24
12 11 10 9 7 6 5 5 5 6 6 6 7 6 7 7 7 8 8 9 9 10 10 11 11 12 13 13 14 14 14 14 15 15 16 17 18 19 20 22 23 24 25
12 11 10 8 7 6 5 4 5 5 6 6 6 6 6 6 7 7 8 8 9 10 10 11 12 12 12 13 14 14 14 14 15 16 16 17 18 19 20 22 23 24 25
11 11 9 8 7 6 5 4 4 5 5 5 5 5 5 6 6 7 7 8 9 10 10 11 12 12 13 13 14 14 15 15 15 16 17 18 19 20 21 22 23 24 26
11 10 9 8 6 5 4 4 4 4 3 3 3 4 5 5 6 7 8 9 9 10 11 12 12 13 13 14 14 15 15 16 16 16 17 18 20 21 22 23 24 25 26
10 9 8 7 6 5 4 4 4 3 2 2 3 4 4 5 6 6 7 8 9 10 11 13 13 14 14 15 15 16 17 17 18 19 19 20 21 22 23 25 26 26 27
8 8 8 7 6 5 5 4 4 3 2 2 3 3 4 5 5 6 8 9 10 11 13 14 15 16 16 17 17 17 18 19 20 20 21 22 23 24 25 26 27 28 29

GEFSSE_500_meanwind_096.txt.gz
Wind_Speed
9 9 9 8 7 7 6 6 6 7 7 7 7 7 7 7 7 7 6 6 6 6 6 6 5 5 5 6 6 6 6 6 6 6 5 5 5 5 5 5 5 5 5
10 10 9 9 8 8 7 6 6 6 6 6 6 5 5 5 5 5 5 5 5 4 4 4 4 4 4 4 4 5 5 5 5 5 4 4 4 4 4 4 4 4 4
10 10 10 9 9 9 8 7 6 5 5 5 4 4 4 4 4 3 3 3 3 3 3 3 3 2 2 2 3 3 4 4 4 4 4 3 3 3 3 3 3 3 4
11 11 10 10 9 9 9 8 7 6 5 4 3 3 3 2 2 2 1 1 1 1 1 1 1 1 1 1 1 1 2 2 3 3 3 3 3 3 3 3 3 3 3
12 11 11 10 10 10 9 8 7 6 5 4 3 2 2 2 1 1 0 1 1 1 1 1 1 1 1 1 1 1 1 1 2 2 2 2 3 3 3 3 3 3 3
13 12 11 11 11 10 10 8 7 6 5 4 4 3 3 2 2 2 2 2 2 2 2 2 2 2 2 2 2 2 2 2 2 2 2 2 3 4 4 4 4 4 4
13 12 12 12 11 11 10 8 7 6 6 5 5 4 4 4 4 4 4 4 3 3 3 4 4 4 4 3 3 4 4 4 3 3 4 4 4 5 5 5 5 5 5
13 13 12 12 12 11 10 9 8 7 7 6 6 5 5 6 5 5 5 5 6 5 5 5 5 5 5 6 5 5 5 5 5 5 5 6 6 6 6 6 7 7 6
14 14 13 13 12 12 11 10 9 8 8 7 7 6 6 6 6 6 6 7 7 7 7 7 7 7 7 7 8 8 8 7 7 7 7 8 8 8 8 8 8 8 8
15 15 14 14 13 12 11 10 9 9 8 8 8 8 7 8 8 8 8 8 8 8 8 9 9 8 8 8 9 9 10 9 9 9 9 9 9 9 9 10 10 10 10
15 16 16 15 14 13 12 11 11 10 9 9 9 9 9 8 9 9 9 9 9 9 9 9 9 9 9 9 9 9 10 10 11 12 11 11 11 11 11 11 11 12 12
17 18 18 17 15 13 13 12 12 11 11 10 10 9 9 9 10 10 10 9 9 9 9 10 10 9 9 9 9 10 10 11 12 13 13 12 12 12 12 13 13 13 14
20 20 19 17 15 14 13 13 12 11 11 10 10 10 10 10 10 9 10 10 10 9 10 10 10 9 8 8 8 9 10 11 12 13 14 14 14 14 14 14 15 15 15
22 21 20 18 16 15 14 13 13 11 11 11 11 10 10 9 9 9 9 9 9 9 10 10 9 8 8 8 8 9 10 11 12 12 14 15 15 15 16 16 16 16 17
23 22 22 20 18 16 15 14 13 12 11 10 10 9 9 9 8 8 9 9 9 9 9 9 9 8 9 9 9 9 10 11 12 13 14 15 16 16 17 18 17 17 17
24 23 22 21 18 17 15 15 13 12 10 9 9 8 8 8 8 8 8 8 8 8 8 8 8 8 9 9 9 10 10 11 12 13 14 15 16 17 17 18 18 18 18
25 24 22 21 19 17 16 15 13 11 9 9 8 8 7 7 7 7 7 7 7 7 7 8 8 8 9 9 10 10 11 12 13 13 13 14 16 16 17 18 18 18 18
25 24 22 21 20 18 16 13 11 10 8 7 7 6 6 6 6 6 6 6 6 6 6 6 7 8 9 10 10 10 11 12 12 13 14 14 15 16 17 18 19 19 19
25 24 22 20 19 18 15 12 10 9 8 6 6 5 5 5 5 5 5 5 5 6 6 7 7 8 8 8 9 10 11 11 12 13 14 14 15 16 17 17 18 19 19
22 22 21 19 18 16 13 12 10 8 7 6 5 4 4 4 4 4 4 5 5 5 5 6 7 7 7 8 8 8 9 10 11 11 13 14 15 15 16 18 18 18 19
21 21 20 18 16 15 13 11 10 8 7 5 4 4 4 3 3 3 3 3 3 3 4 5 6 7 7 7 7 8 8 8 9 10 11 13 14 14 15 16 18 19 20
19 19 19 17 16 14 12 11 9 8 7 5 4 4 3 3 2 2 2 1 2 2 3 4 6 6 7 7 8 8 8 8 9 10 11 12 13 14 15 16 17 18 20
17 17 17 16 15 13 11 10 9 8 7 6 5 4 4 3 2 1 0 1 1 2 3 5 6 7 7 8 8 8 9 9 10 11 12 12 13 14 15 16 17 18 20
14 15 15 15 15 13 11 10 9 8 7 6 6 5 4 3 2 1 0 0 1 2 3 5 6 7 8 8 9 9 10 10 11 12 12 13 14 15 16 17 18 19 20
13 14 15 15 14 13 12 11 9 8 7 7 6 6 5 4 3 2 1 0 1 2 3 5 6 8 9 10 10 11 11 11 12 13 13 14 14 15 17 18 19 20 21
12 13 13 14 13 12 11 11 10 9 8 8 7 6 5 4 4 3 2 2 2 3 4 6 7 8 10 11 12 12 13 13 14 15 15 16 16 17 18 19 20 21 22

GEFSSE_500_meanwind_102.txt.gz
Wind_Speed
9 9 8 8 7 6 5 4 4 4 4 4 4 3 3 3 3 3 3 3 3 2 2 2 2 2 2 3 3 3 3 4 3 3 3 3 3 4 5 5 5 5 4
10 10 10 9 8 7 6 5 5 5 4 4 4 3 3 3 2 2 2 2 2 2 2 2 1 1 1 2 2 2 2 2 2 2 2 2 2 3 3 4 4 4 4
11 11 11 10 9 8 7 6 6 5 5 5 4 4 3 3 2 2 1 1 1 1 1 0 0 1 1 1 1 1 1 1 1 1 1 1 1 2 2 3 3 3 3
12 12 11 11 10 9 8 7 6 6 6 6 5 5 4 3 3 2 2 1 1 1 1 1 1 2 2 2 2 1 1 1 1 1 0 1 1 1 1 2 2 3 3
13 14 13 12 11 10 9 8 7 7 6 6 6 5 4 4 3 3 3 2 2 2 2 3 3 3 3 3 3 3 2 2 2 1 1 0 1 1 1 1 2 2 2
16 15 14 13 12 11 11 9 9 8 7 7 6 6 5 5 4 4 4 3 3 3 4 4 4 4 4 5 4 4 4 3 3 3 2 2 2 2 2 1 1 1 1
16 16 16 15 13 12 12 11 10 9 8 8 7 7 6 6 6 5 5 5 5 5 5 5 5 5 6 7 6 6 5 5 5 4 4 3 3 3 3 2 2 1 1
15 16 17 16 15 14 13 11 10 10 10 9 8 7 7 7 7 6 6 6 6 6 6 7 7 7 8 8 8 8 8 7 7 6 6 5 5 4 4 4 3 3 3
15 16 17 17 16 15 14 13 12 11 11 10 9 8 8 8 7 7 7 7 7 7 7 8 8 8 8 9 9 9 9 9 8 7 7 7 7 6 6 5 5 5 5
17 18 18 18 17 17 16 14 13 12 12 11 10 9 9 9 9 9 9 9 8 9 9 8 9 9 9 10 10 10 10 10 10 9 9 8 8 8 7 7 7 7 7
19 19 19 18 18 18 16 15 14 13 12 12 11 11 10 10 9 9 9 9 10 10 10 10 9 9 9 10 10 11 11 10 10 10 11 10 10 9 9 8 8 8 8
21 21 20 19 19 18 17 16 16 14 13 12 12 11 11 10 10 9 9 9 10 10 10 10 10 9 9 9 10 10 11 11 10 10 11 10 11 11 11 11 10 10 10
20 20 20 19 20 19 17 17 16 15 14 13 13 11 11 10 10 10 10 10 10 10 9 9 8 9 9 9 9 10 10 10 10 10 11 11 12 12 12 12 12 12 12
21 21 21 21 20 19 18 17 16 15 14 13 12 11 10 10 10 10 9 9 8 7 7 7 7 7 7 7 8 9 9 10 9 9 11 12 13 13 13 13 13 14 14
23 22 22 21 21 20 19 17 16 15 15 13 12 11 10 10 9 8 8 7 5 5 5 5 5 5 5 6 7 8 8 9 9 9 10 11 13 13 13 13 13 14 15
24 24 22 22 21 20 19 18 16 14 14 13 11 9 9 9 8 7 6 5 4 4 4 4 4 5 5 6 7 7 8 8 9 9 9 10 11 12 13 14 14 14 15
23 24 23 23 21 19 19 18 16 14 12 11 9 8 8 7 6 5 5 5 4 4 4 4 5 5 5 5 6 6 7 7 8 9 9 10 10 11 11 13 14 15 15
21 22 23 22 20 18 18 17 15 13 11 9 8 6 5 5 5 4 4 4 4 4 4 4 5 5 5 5 5 5 6 6 7 7 8 9 10 10 11 12 13 14 15
19 20 21 19 19 18 18 17 15 12 10 8 7 6 5 4 4 3 3 2 3 3 3 4 4 5 5 5 6 6 6 6 7 7 7 8 9 10 10 11 12 12 13
18 18 18 17 18 17 16 16 12 10 8 7 6 5 4 4 3 2 2 1 2 2 3 4 5 5 6 6 6 6 6 6 6 6 7 7 8 9 9 9 11 12 13
17 17 17 17 17 16 15 13 10 9 7 6 5 4 3 3 2 2 1 1 1 1 2 4 5 6 6 6 7 7 7 7 7 7 7 8 8 9 9 9 9 10 12
14 15 17 17 17 15 14 12 9 8 7 5 5 3 3 2 2 2 1 0 0 1 2 3 5 5 6 7 7 8 8 8 8 8 8 8 9 9 10 10 11 11 12
11 12 14 14 14 14 13 11 9 8 7 6 5 4 3 3 2 2 1 1 1 1 2 3 4 5 6 7 8 8 9 8 9 9 9 9 9 10 11 11 12 12 12
8 10 11 12 12 12 11 10 9 8 7 6 5 5 4 4 3 2 2 1 1 1 2 3 4 5 6 7 8 9 10 10 10 10 10 10 11 11 12 13 13 13 13
7 9 9 10 11 11 10 9 9 8 8 7 6 6 5 5 4 3 2 2 1 0 1 2 3 5 6 7 9 10 11 11 11 11 11 12 12 12 13 14 14 14 14
6 8 10 10 10 9 9 10 9 9 8 7 7 7 6 6 5 4 4 3 2 1 2 3 4 5 7 8 9 10 11 12 12 13 13 13 13 14 14 15 15 15 16

GEFSSE_500_meanwind_108.txt.gz
Wind_Speed
6 5 4 4 4 3 2 2 1 1 2 2 3 3 3 2 2 2 2 2 2 2 2 2 2 3 3 3 3 3 3 3 3 3 3 3 4 4 5 5 6 6 7
7 6 5 5 5 4 4 3 2 2 3 3 3 3 3 3 3 3 3 3 3 3 3 2 2 3 3 2 2 2 2 2 2 2 2 2 3 4 4 4 5 6 6
7 7 6 6 6 5 5 4 3 3 3 3 4 4 4 4 4 4 4 4 4 4 4 3 3 3 3 2 2 2 2 2 2 1 1 2 2 3 3 3 4 5 6
8 8 7 7 7 7 6 5 4 4 4 4 4 4 5 5 5 5 5 5 5 5 5 5 5 4 4 3 2 2 2 1 1 1 1 2 2 2 2 3 3 4 5
7 8 9 8 8 8 7 6 5 5 5 4 4 5 5 6 6 6 6 6 6 6 6 6 6 5 5 4 4 3 3 2 2 1 0 1 1 1 2 2 3 3 4
8 9 10 10 10 9 9 8 7 6 6 5 5 5 6 6 7 7 7 7 7 7 7 7 7 6 6 6 6 5 4 4 3 2 1 1 1 1 1 2 2 3 3
9 10 11 12 11 12 10 9 8 7 6 5 5 5 6 7 8 8 8 8 8 8 8 8 8 8 8 8 8 7 6 5 5 4 3 3 2 2 2 2 2 3 3
10 11 12 13 12 13 12 11 9 8 7 6 6 6 6 7 8 8 9 9 9 9 9 9 9 9 9 9 9 8 8 7 7 6 5 5 4 3 3 3 2 3 3
11 12 13 14 14 14 13 12 11 9 7 7 6 7 7 8 9 9 9 9 10 9 10 10 10 10 10 10 9 9 9 8 8 8 7 6 5 5 4 4 3 3 3
12 13 14 14 15 15 15 14 12 10 9 8 8 8 8 9 9 10 10 11 11 10 10 10 10 11 11 10 9 9 9 8 8 9 8 7 6 6 5 5 4 4 4
13 15 16 15 15 15 15 14 13 11 10 9 9 9 9 9 10 10 11 11 11 11 11 11 12 12 11 10 9 9 8 8 9 8 8 7 6 6 6 6 5 5 5
15 16 17 17 16 16 15 15 14 13 11 10 10 10 10 10 11 11 11 12 12 12 12 12 12 12 11 10 9 8 8 8 8 8 8 8 7 7 7 7 7 6 6
15 17 18 19 18 17 16 15 14 14 13 11 11 10 11 11 11 11 11 11 11 11 11 11 10 11 10 10 9 8 8 8 8 7 7 8 7 8 7 7 7 7 7
16 18 19 20 20 19 18 16 15 14 14 13 12 12 11 11 11 11 10 9 9 9 8 8 8 8 9 8 8 7 7 7 7 6 6 6 7 7 7 8 8 8 9
16 18 20 22 21 20 18 16 16 15 15 13 12 12 12 11 10 9 8 7 7 6 5 5 5 6 6 7 7 7 6 5 5 5 5 5 6 6 7 8 9 9 9
15 18 21 20 21 20 19 17 16 16 14 13 12 12 12 11 9 8 7 6 5 5 4 3 3 4 4 5 5 5 5 5 5 5 4 4 5 5 6 7 8 9 9
14 18 20 20 20 19 18 17 16 15 13 12 11 10 10 9 7 7 6 5 4 4 3 3 2 2 3 4 3 3 3 3 4 4 4 4 4 5 5 6 7 8 9
12 15 19 19 19 19 19 18 16 14 13 12 10 9 8 7 6 5 5 4 4 3 3 3 2 1 1 2 2 2 2 2 3 3 3 3 4 4 5 5 6 7 8
11 14 17 18 19 17 18 17 16 14 11 10 9 8 7 7 6 5 5 4 4 3 2 2 1 0 0 0 1 2 2 2 2 2 3 3 3 4 4 5 6 6 7
9 12 16 17 18 16 17 17 14 13 12 10 10 9 8 7 7 6 6 5 4 4 3 3 3 3 2 2 2 2 2 2 2 2 2 3 3 3 4 4 5 6 7
9 12 14 17 16 15 16 16 14 13 12 11 10 10 9 8 7 7 7 7 6 5 5 4 4 4 4 3 3 3 3 3 4 3 2 2 2 3 4 4 4 4 5
7 11 13 16 17 16 15 14 14 12 12 12 11 11 10 9 8 8 8 8 7 6 5 5 4 4 4 3 3 3 4 5 5 4 4 3 3 3 4 4 4 4 4
6 10 12 14 15 16 15 13 13 13 12 13 12 11 10 10 10 9 9 8 8 7 6 5 5 4 3 4 4 4 5 6 6 5 5 4 4 4 4 4 4 4 5
6 10 12 14 15 14 14 13 13 14 14 14 13 12 11 11 10 9 9 9 8 7 7 6 5 4 3 3 4 4 5 5 5 6 6 5 5 5 5 5 5 5 5
7 9 10 13 14 14 15 14 14 15 14 14 13 13 12 12 11 10 9 9 9 8 7 6 5 4 3 2 2 3 3 4 5 5 6 6 6 6 5 6 6 6 6
6 8 9 10 12 14 14 15 15 15 15 14 14 14 14 13 12 11 10 10 9 8 7 6 5 4 2 1 0 1 2 3 4 5 6 6 7 7 6 7 7 7 7

GEFSSE_500_meanwind_114.txt.gz
Wind_Speed
4 5 5 5 5 5 6 6 6 6 6 5 4 4 4 5 5 6 6 6 6 6 6 6 7 7 7 6 6 6 5 5 4 5 5 5 5 5 6 6 6 6 7
5 6 6 6 6 6 6 6 5 5 4 4 3 3 4 4 5 6 6 6 6 6 7 7 7 7 7 7 7 6 6 5 4 4 5 5 4 5 5 5 5 6 7
5 7 7 7 7 6 6 5 5 4 3 3 3 3 3 4 5 6 6 7 7 7 7 7 7 7 7 7 7 6 6 5 5 4 4 4 4 4 4 4 5 6 6
6 7 9 9 8 7 6 5 5 4 3 2 1 2 2 3 5 6 6 7 7 7 7 7 7 7 7 7 7 6 5 5 4 4 4 3 3 3 4 4 4 5 6
8 8 9 10 9 8 7 6 5 4 3 2 1 1 2 3 5 6 7 7 7 7 8 7 7 7 7 7 6 6 5 4 3 3 3 3 3 3 3 3 4 4 5
8 9 11 11 10 9 8 8 6 5 3 2 1 0 2 4 5 6 7 7 7 8 8 7 7 7 7 7 6 6 5 4 3 3 2 2 2 2 2 2 3 3 4
8 10 12 12 11 10 9 8 7 6 4 3 2 1 3 3 4 6 7 7 8 8 7 7 7 7 7 7 6 5 4 4 3 3 2 1 1 1 1 1 2 3 3
9 11 12 13 13 12 10 9 8 7 5 4 3 2 3 3 4 5 7 8 8 8 8 7 7 7 7 7 7 6 5 4 4 3 2 2 1 1 1 1 1 2 3
11 11 12 13 14 13 11 10 9 8 7 5 4 3 3 4 5 6 7 8 9 8 8 7 8 8 8 7 7 6 5 5 4 4 3 3 2 2 2 2 2 3 3
11 13 14 14 14 13 13 12 10 8 8 6 6 5 4 5 5 6 8 9 9 9 8 8 8 8 8 8 7 6 6 5 5 5 4 3 3 3 3 4 4 4 4
11 13 15 15 15 15 14 13 11 10 9 8 7 6 6 6 6 7 8 9 10 9 9 9 9 9 9 8 7 6 6 6 6 5 5 5 5 4 4 5 5 5 5
12 13 15 16 16 16 16 14 13 12 11 9 8 8 8 7 7 8 9 10 10 10 9 9 9 8 8 7 6 6 6 6 5 5 5 5 5 5 6 6 6 6 6
13 14 17 17 17 18 17 16 15 13 12 11 10 10 9 9 8 8 9 10 10 10 9 8 8 6 6 6 5 5 5 5 5 5 6 5 6 6 6 6 7 7 7
13 15 18 19 18 18 18 18 16 14 13 12 11 11 10 9 9 9 9 10 9 9 8 7 6 5 5 5 5 5 5 5 5 4 4 5 6 7 7 7 8 8 8
14 15 17 17 18 20 20 19 18 16 14 13 12 11 11 10 10 9 9 9 9 8 7 6 5 4 4 4 4 4 4 4 4 3 4 4 4 5 6 7 7 8 9
13 14 17 18 19 20 21 20 19 17 15 14 13 11 11 11 11 10 10 9 8 7 6 4 4 3 3 3 3 3 3 4 4 3 3 4 4 5 5 6 7 8 8
11 14 17 18 20 20 21 21 19 17 15 13 13 12 12 12 11 10 9 8 7 6 5 4 3 2 2 1 1 2 3 3 3 3 3 3 4 5 5 5 6 7 9
11 14 17 18 20 21 21 22 20 18 15 14 13 13 13 12 11 9 8 7 6 5 4 3 2 1 1 1 1 1 2 2 2 2 2 3 3 4 5 5 6 7 8
11 14 18 20 21 21 21 21 20 18 16 15 14 13 13 12 10 9 8 7 6 5 4 3 2 1 1 1 1 1 1 1 1 1 2 2 3 3 4 5 6 6 6
11 14 19 20 21 21 21 20 20 19 18 16 14 14 12 11 10 9 8 7 6 5 4 3 2 1 1 1 1 1 1 1 0 1 1 2 3 3 3 4 4 5 6
10 13 16 19 21 21 20 20 20 20 18 16 14 13 12 11 10 9 8 8 7 6 4 4 3 2 2 2 2 2 2 1 1 1 0 1 1 2 2 3 3 4 5
8 12 16 19 21 21 21 20 20 20 18 16 15 13 13 12 11 10 9 8 8 7 5 4 3 3 2 2 2 2 2 2 1 1 1 0 0 1 1 2 3 4 5
7 11 16 19 21 21 20 19 18 18 17 17 15 14 13 13 12 11 10 9 8 8 6 5 4 3 3 2 2 2 2 2 2 2 2 1 1 1 1 2 3 3 4
7 10 15 18 19 20 20 20 19 18 18 17 16 15 14 14 13 12 10 10 9 9 7 6 5 5 4 3 2 1 0 1 1 1 1 2 2 2 2 3 3 3 4
6 9 14 17 18 19 20 21 21 19 18 18 17 16 15 14 14 13 12 11 10 10 9 8 7 6 5 4 3 2 2 1 1 2 2 3 3 4 4 4 4 4 4
4 7 11 15 18 19 20 20 20 19 19 18 17 17 16 15 15 14 13 12 11 11 10 9 8 8 7 6 5 4 3 3 3 3 4 4 5 5 6 6 6 6 6

GEFSSE_500_meanwind_120.txt.gz
Wind_Speed
7 9 10 9 8 8 8 8 9 8 8 8 8 8 8 8 8 8 7 7 7 7 7 7 6 6 6 6 6 5 5 5 5 5 5 5 4 4 4 4 4 4 4
7 9 10 10 9 9 8 8 9 8 8 7 7 8 8 7 7 7 7 7 7 6 6 6 6 6 6 6 5 5 5 5 4 4 4 4 4 4 4 4 4 4 5
7 10 10 10 10 10 9 9 9 8 8 7 7 7 7 6 6 6 6 6 6 6 6 6 5 6 6 5 5 5 4 4 4 4 4 4 4 4 4 4 4 4 5
8 10 10 11 11 11 10 10 9 9 8 7 7 6 6 6 6 5 6 5 5 5 5 5 5 5 5 4 4 4 4 3 3 3 4 4 4 4 4 3 4 4 4
8 10 11 11 11 11 11 11 10 9 8 7 7 6 6 5 5 5 5 5 4 5 4 4 4 4 4 3 3 3 3 3 3 3 4 4 4 4 4 4 4 4 4
9 10 11 11 12 12 12 11 11 10 9 8 7 6 5 5 4 4 4 4 3 4 3 3 3 3 3 2 2 2 2 3 3 3 4 4 4 4 4 4 4 4 4
9 11 11 12 13 13 13 13 12 11 10 9 8 6 5 4 4 3 3 3 3 2 2 2 2 2 2 2 1 1 2 2 3 3 3 3 3 4 4 4 4 4 5
9 10 12 13 13 14 14 14 13 11 10 9 8 7 5 4 3 3 2 1 1 1 1 2 1 1 2 1 0 1 2 2 3 3 3 4 4 4 4 4 5 5 5
9 10 11 12 14 14 15 15 14 13 11 10 9 8 6 4 3 2 1 0 0 1 1 1 2 2 2 1 1 1 2 2 2 3 4 4 5 5 5 5 5 5 6
9 11 12 13 15 16 16 16 15 14 13 11 10 8 7 5 3 2 1 1 1 1 1 2 2 3 3 2 2 2 3 3 3 4 5 5 6 6 6 6 6 6 6
10 12 13 15 16 17 17 17 17 16 14 13 10 8 7 5 3 2 2 2 2 2 2 2 3 4 3 3 3 3 3 4 4 4 5 6 6 6 7 7 7 6 6
11 12 14 15 17 19 19 19 19 17 15 13 11 9 7 5 4 4 3 3 3 3 3 3 3 3 3 3 3 3 3 4 4 4 5 7 7 7 7 7 7 7 7
13 14 15 16 18 19 20 20 19 18 16 14 12 10 8 7 5 5 4 3 3 3 4 3 3 3 3 2 2 3 3 3 4 4 5 6 6 6 7 7 8 8 8
13 14 16 17 19 20 21 20 20 19 17 15 13 11 9 8 6 5 5 4 4 4 4 3 3 2 2 2 2 3 3 3 3 4 4 5 6 6 7 7 8 8 8
13 14 16 19 19 21 22 21 22 20 19 16 14 12 10 9 7 6 5 4 4 4 4 2 2 2 1 2 2 2 3 3 3 4 4 4 5 6 6 6 8 8 8
14 15 17 19 19 21 23 23 23 22 20 18 16 13 11 9 7 6 5 4 4 4 3 2 2 2 2 2 2 1 2 2 3 4 4 4 4 5 6 5 6 7 7
15 16 17 19 20 23 25 25 24 23 20 19 16 14 12 10 8 7 6 5 4 3 3 3 2 2 2 2 2 1 1 1 2 3 3 4 4 4 5 5 5 6 7
16 17 16 17 20 22 24 25 24 23 21 19 16 14 12 10 9 8 7 5 4 3 3 3 2 2 1 1 0 0 0 0 1 2 3 3 3 4 4 4 4 5 6
14 14 15 17 19 23 24 24 23 22 21 19 16 14 12 10 9 8 7 6 5 4 3 3 2 2 2 1 1 0 0 0 1 1 2 2 3 3 4 4 4 4 5
12 12 12 17 20 22 23 23 22 22 21 19 17 14 12 10 9 8 7 6 5 5 4 3 3 2 2 2 1 1 1 0 1 1 2 2 2 3 3 3 4 4 5
11 11 12 15 19 22 23 22 21 21 20 19 17 15 12 11 9 7 7 6 6 6 5 4 4 3 3 2 2 1 0 0 0 1 1 1 2 2 3 4 4 5 5
10 11 12 14 18 22 23 21 20 20 20 18 17 16 14 12 10 8 7 7 7 6 6 5 5 5 4 3 2 1 1 0 0 1 2 2 2 2 3 4 4 5 5
9 9 11 14 19 21 21 21 21 20 19 18 17 16 14 13 11 9 8 8 8 7 7 7 6 6 5 4 3 2 1 1 0 1 2 2 3 3 3 4 4 4 5
7 7 9 13 17 21 22 20 21 20 19 18 17 16 14 13 12 10 10 9 8 8 8 8 8 7 6 5 4 3 2 2 1 1 2 3 3 3 4 4 5 5 5
6 7 8 12 15 19 20 19 20 20 19 19 18 16 15 14 13 12 11 11 10 9 10 9 8 8 7 7 5 5 4 3 3 3 3 4 4 4 5 5 5 6 6
5 5 7 11 13 17 19 19 19 19 19 18 18 17 16 15 14 13 13 12 11 11 10 10 9 9 9 8 7 6 6 6 5 5 5 5 6 6 6 7 7 7 8

GEFSSE_500_meanwind_126.txt.gz
Wind_Speed
7 7 7 8 9 8 7 7 7 6 5 5 5 5 5 5 5 4 4 4 5 5 5 5 4 4 4 4 4 4 3 3 3 3 3 4 4 4 4 5 5 4 5
7 7 8 9 9 8 8 7 7 7 6 6 5 5 5 5 4 4 4 4 4 4 4 4 4 3 3 3 3 3 3 2 2 2 2 3 3 4 4 4 4 4 4
8 8 9 10 10 9 8 8 7 7 7 6 6 5 5 4 4 3 3 3 3 3 3 3 3 3 2 2 2 2 1 1 1 1 1 2 3 3 4 4 4 5 5
8 8 9 10 10 9 9 8 8 7 7 7 6 5 4 4 3 3 3 3 3 2 3 3 2 2 2 1 1 1 1 1 1 1 2 2 2 2 3 3 4 4 4
9 9 10 10 10 10 9 9 8 7 7 7 6 6 5 4 4 3 3 2 2 2 2 2 2 1 1 0 1 1 1 1 0 0 1 2 1 2 2 3 3 3 4
9 10 10 11 11 11 11 10 9 8 8 7 7 6 5 4 4 3 2 2 2 2 1 1 1 0 1 1 1 1 1 1 0 0 0 1 1 1 2 2 2 3 3
8 10 11 11 11 11 11 11 10 9 9 8 8 7 6 5 4 3 2 2 1 1 1 1 1 0 1 1 2 2 2 1 1 1 1 1 1 1 1 1 1 2 2
8 10 12 13 12 12 12 11 11 10 10 9 9 8 7 5 4 3 2 2 1 1 1 1 1 1 1 1 2 2 2 2 2 1 2 1 1 1 1 1 0 1 1
8 10 12 13 13 13 13 13 12 12 11 10 10 9 8 6 5 4 3 2 2 1 1 1 1 1 2 2 2 2 2 3 2 2 2 2 2 2 2 1 1 1 1
8 9 11 12 13 14 14 14 13 13 12 12 11 10 8 7 6 5 4 3 2 2 2 2 2 2 3 3 3 3 3 3 3 4 4 3 3 3 3 3 2 2 2
8 9 11 12 13 14 14 14 14 14 13 13 12 10 9 8 7 6 5 4 3 3 3 2 3 3 3 3 3 3 3 3 4 5 4 4 4 4 3 4 4 3 3
10 9 10 12 14 14 15 15 15 15 14 14 13 12 11 9 8 6 5 4 4 3 3 3 3 3 3 3 3 3 3 3 4 5 5 4 4 4 4 4 5 4 4
12 11 11 12 15 15 15 16 16 15 15 14 14 12 11 9 8 7 6 5 4 3 3 3 3 3 3 3 4 3 3 3 3 4 5 4 4 4 5 5 5 5 5
13 13 13 15 16 17 17 17 17 16 15 15 14 13 11 10 8 7 6 6 5 4 3 3 3 3 3 3 3 3 3 2 3 4 3 3 3 4 5 5 5 5 5
15 15 15 16 17 18 17 18 17 17 16 15 14 13 12 10 9 7 6 6 5 4 3 3 2 2 2 2 2 2 2 2 3 3 3 3 3 3 4 5 5 5 5
17 17 16 17 18 19 19 17 17 17 17 15 15 14 12 10 9 7 6 6 5 4 4 3 2 2 1 1 1 1 2 1 1 2 2 2 3 2 3 4 4 5 5
17 18 18 18 18 19 20 18 18 18 17 16 15 14 12 11 9 8 7 6 5 4 4 3 2 2 1 1 0 1 1 1 1 1 2 2 2 2 2 3 3 3 4
18 18 18 17 17 17 19 19 18 18 19 18 16 15 13 12 10 9 7 7 5 5 4 4 3 2 1 0 0 1 1 2 2 2 1 1 2 2 2 2 2 2 3
18 18 18 16 16 16 19 20 18 18 19 19 17 15 14 13 11 9 8 7 6 5 5 4 3 2 2 1 0 1 1 2 3 3 3 2 2 2 2 3 2 2 3
17 16 16 15 16 16 18 19 18 18 19 18 17 15 14 13 11 10 9 8 7 6 6 5 4 3 2 2 1 1 2 3 3 4 4 4 3 3 3 3 3 3 3
15 14 14 14 15 16 16 18 19 19 18 18 17 15 14 13 12 11 9 8 7 7 6 6 5 4 3 2 1 1 2 3 3 4 4 4 4 4 4 4 4 3 3
13 12 12 12 12 14 16 17 18 19 18 17 16 15 15 14 13 11 10 8 7 7 7 7 6 5 4 3 2 2 2 2 3 3 4 4 4 4 4 4 4 4 4
12 10 10 11 11 13 16 16 16 18 17 16 15 14 14 14 13 12 10 9 8 8 8 7 6 5 4 4 3 2 2 1 2 2 3 3 4 4 4 4 4 4 4
11 10 9 9 10 12 15 16 16 16 16 15 15 14 14 14 13 12 11 10 9 8 8 8 7 6 5 5 4 3 2 1 0 1 1 2 3 4 4 5 4 4 4
12 10 8 9 9 11 14 16 16 16 16 16 15 14 14 14 13 12 11 11 10 9 8 8 7 7 6 6 5 4 3 3 2 2 2 3 3 4 4 5 5 5 5
12 11 8 8 9 11 13 15 17 17 17 16 14 14 14 14 13 13 13 12 11 10 9 9 9 8 8 7 6 6 5 5 5 5 4 5 5 5 5 6 6 6 7

GEFSSE_500_meanwind_132.txt.gz
Wind_Speed
2 2 3 3 4 4 3 3 2 1 1 2 2 3 3 3 3 3 3 3 3 3 3 3 3 3 3 3 4 4 4 4 4 4 4 4 4 4 5 5 6 6 7
2 2 3 4 4 4 4 3 3 2 2 2 3 3 3 4 3 3 3 2 2 2 2 3 2 3 3 3 3 3 3 4 4 3 3 3 3 4 5 5 5 6 6
2 3 4 5 5 5 5 4 3 3 3 3 3 3 4 4 4 3 3 2 2 2 2 2 2 2 2 3 3 3 3 3 3 3 2 3 3 4 5 5 5 5 6
2 3 5 5 6 6 6 5 4 3 3 3 3 3 3 4 4 3 3 3 2 2 2 2 2 3 2 3 3 3 3 4 4 3 3 3 3 4 4 4 4 5 5
2 3 4 5 6 6 6 5 4 4 4 3 3 4 4 4 4 3 3 3 3 3 3 3 3 3 3 3 3 3 3 3 3 2 3 3 3 3 3 4 4 4 5
1 3 4 6 6 7 7 6 5 4 4 4 4 4 4 4 4 4 3 3 3 3 3 3 3 3 3 3 3 3 3 3 2 2 2 2 2 2 3 3 4 4 4
0 1 4 6 7 7 8 7 7 6 5 4 4 4 3 4 4 3 3 4 3 3 4 4 4 4 3 3 3 3 2 2 2 1 1 1 1 2 2 3 3 4 4
2 1 3 5 7 7 8 8 8 7 6 5 5 4 4 4 4 4 4 4 4 3 4 4 4 4 3 3 2 2 2 2 1 1 1 1 1 1 2 2 3 3 3
3 3 3 5 7 8 8 9 8 8 7 6 6 5 4 4 4 4 4 4 4 4 4 5 5 4 4 3 3 2 2 2 1 1 1 0 0 1 1 2 2 2 3
4 4 4 5 7 8 9 9 9 8 8 7 6 5 5 5 5 5 5 5 5 5 5 5 5 4 4 3 3 3 3 2 1 1 1 1 1 1 2 2 2 2 3
4 4 4 5 6 7 9 10 10 9 8 7 6 6 5 5 5 5 5 5 6 6 5 5 5 4 3 3 2 2 2 2 1 2 2 2 2 2 2 3 3 2 3
5 5 4 5 6 8 9 10 10 10 9 8 8 7 6 6 6 5 5 6 6 6 6 6 5 4 3 3 2 2 2 2 1 1 2 3 3 3 3 3 3 3 4
6 6 6 6 8 9 10 10 11 12 11 10 9 8 8 7 7 6 6 6 6 6 6 6 5 4 3 2 2 3 3 2 2 2 2 3 3 3 3 3 4 4 4
7 7 7 8 9 10 11 12 12 13 13 12 10 9 8 8 7 6 6 6 6 5 6 5 4 3 2 2 2 3 3 2 2 2 1 1 2 2 3 3 4 5 5
9 9 8 9 11 12 12 13 14 14 14 13 12 11 9 8 8 8 7 6 5 5 5 5 4 3 2 2 2 3 3 2 2 1 1 1 2 2 2 3 4 4 5
9 10 9 10 12 12 13 14 15 15 15 14 13 12 11 9 8 7 6 6 6 5 4 4 4 3 2 2 1 2 2 2 1 1 1 1 1 2 1 2 4 4 4
10 11 11 11 12 12 14 15 15 16 16 15 14 13 12 10 8 7 6 6 6 5 4 4 4 3 3 2 2 1 1 1 1 1 1 1 1 2 2 2 3 3 4
12 12 13 11 12 13 14 14 15 17 16 16 16 14 14 12 10 8 7 6 6 5 5 5 5 4 4 3 2 1 1 1 1 1 1 1 1 2 2 3 3 3 4
13 13 12 10 11 11 13 14 16 17 18 18 17 16 15 14 11 9 8 7 6 5 6 6 6 5 5 4 3 2 1 1 1 2 2 2 2 2 2 2 2 3 3
12 12 12 10 11 12 12 14 15 17 18 19 18 18 17 15 13 11 9 9 7 6 7 7 7 6 5 5 4 3 2 2 1 2 2 3 3 3 2 2 2 2 3
12 11 10 11 10 11 11 13 14 17 18 18 18 18 17 15 14 13 12 10 9 7 7 7 8 7 6 6 5 4 3 2 2 3 3 3 3 3 3 3 3 2 2
11 10 10 9 8 9 11 13 14 18 18 18 18 17 16 15 15 14 13 12 10 8 8 8 8 8 7 7 6 5 4 4 3 3 3 3 3 3 3 3 3 3 2
11 10 10 9 8 8 10 13 16 18 18 18 17 16 15 15 16 15 13 12 11 10 8 8 9 8 8 8 7 6 5 4 4 3 3 3 3 3 2 2 2 2 2
10 10 9 9 8 8 9 11 14 16 18 19 18 17 16 15 16 16 15 13 12 11 9 9 9 9 9 9 8 7 6 5 5 4 4 3 3 3 2 2 1 1 1
10 10 9 8 8 8 10 11 13 17 18 19 19 18 16 16 16 16 16 15 14 12 11 10 10 11 10 10 9 8 7 7 6 5 5 4 4 4 3 2 2 2 2
10 10 9 8 7 6 8 11 13 16 18 19 19 17 16 16 16 16 15 16 16 14 13 12 12 12 12 11 10 9 9 8 7 6 6 6 6 5 5 5 4 4 4

GEFSSE_500_meanwind_138.txt.gz
Wind_Speed
2 2 2 2 3 3 5 6 7 8 8 8 8 8 8 8 8 8 8 7 7 7 7 7 7 7 6 6 6 6 6 6 5 5 5 6 6 6 6 6 7 7 7
2 3 3 3 3 3 4 5 6 7 7 7 7 7 7 7 7 7 7 7 7 7 7 7 7 7 6 6 6 6 6 5 5 5 5 5 6 6 6 6 6 7 7
2 3 4 4 4 4 4 4 5 6 6 6 6 6 6 7 7 6 6 7 7 7 7 7 7 6 6 6 6 6 6 5 5 5 5 5 5 5 5 6 6 7 7
2 3 4 5 4 4 4 4 4 5 5 5 5 5 5 6 6 6 6 7 7 7 7 7 6 6 6 6 6 6 6 6 5 5 5 4 4 5 5 5 6 7 7
2 4 4 5 5 4 4 3 3 3 4 4 4 4 4 5 5 6 6 6 6 6 6 6 6 6 5 5 5 5 5 5 5 5 5 5 5 5 5 5 6 6 7
2 3 4 4 5 5 4 4 4 3 3 3 3 3 4 4 5 5 6 6 6 6 6 6 6 5 5 5 5 4 4 5 5 4 4 4 4 4 4 5 5 6 6
1 2 3 4 5 5 5 4 4 3 2 2 2 2 2 3 4 4 4 5 6 6 6 5 5 5 5 5 4 4 4 4 4 4 4 4 4 4 4 4 5 5 5
1 2 3 4 5 5 5 4 4 3 2 2 2 1 1 2 3 3 3 4 5 5 5 5 5 5 4 4 4 3 3 3 3 3 3 3 3 3 3 3 4 4 4
2 2 3 4 5 5 5 5 5 4 3 3 2 1 0 1 2 3 3 3 4 5 5 6 6 5 4 4 3 3 3 2 2 2 2 3 2 2 2 2 2 3 3
2 2 3 4 5 6 6 5 5 5 4 3 2 1 1 1 2 3 3 3 4 5 5 6 6 5 4 3 3 3 3 3 3 2 1 1 1 1 1 1 1 2 3
3 3 3 3 5 6 6 6 7 6 5 4 3 2 2 1 1 2 3 3 4 4 5 5 5 4 3 3 3 3 3 3 3 2 1 0 1 1 1 1 1 2 3
4 4 3 4 4 6 7 7 8 7 7 6 4 4 3 2 2 3 3 4 4 4 4 5 5 4 3 2 2 3 3 3 2 2 1 2 2 2 2 2 2 2 3
5 5 5 4 5 7 8 8 9 9 8 8 6 5 4 3 3 3 4 4 4 4 4 5 5 4 3 2 2 2 2 3 3 2 1 2 2 3 3 3 3 4 4
6 6 6 6 7 7 9 10 10 10 11 10 9 7 7 5 4 4 5 5 4 4 4 4 4 3 2 1 1 1 1 2 2 2 2 2 2 2 2 3 4 5 5
7 7 8 8 9 9 10 11 11 12 12 12 11 10 9 7 6 6 6 6 5 4 4 4 4 3 2 2 1 1 1 1 2 2 2 2 1 2 2 3 4 4 5
9 10 10 10 10 11 11 12 13 13 14 14 13 12 11 9 8 7 7 6 6 5 4 4 3 2 2 2 1 1 1 1 2 2 2 2 2 2 2 3 3 4 4
11 12 12 11 11 12 13 14 14 14 15 15 13 14 13 11 9 8 8 7 6 5 4 3 2 1 1 1 1 0 0 1 1 2 2 2 2 2 2 2 3 3 4
12 12 13 12 13 13 11 13 15 16 16 16 15 15 14 13 11 10 9 8 7 6 5 4 3 2 2 2 1 1 0 1 2 2 2 2 2 2 2 2 2 3 3
12 12 12 12 12 12 13 13 14 15 16 17 16 16 16 15 13 11 10 9 8 7 6 5 4 3 3 3 2 1 1 1 1 2 3 2 1 1 1 2 3 3 4
14 13 11 10 9 11 12 13 14 13 15 16 16 17 18 16 14 12 11 10 9 8 7 6 6 5 5 4 4 2 2 1 1 1 2 2 1 1 1 1 2 2 3
13 12 10 10 10 10 12 14 14 14 14 16 17 18 19 18 15 13 13 12 10 9 8 7 7 7 6 6 5 4 3 3 2 1 1 1 1 1 1 1 1 1 2
13 12 11 9 8 8 11 14 15 15 15 16 17 18 19 18 17 15 15 14 12 11 10 9 8 8 8 7 6 5 4 3 3 1 1 0 0 1 1 2 1 2 2
15 13 11 8 7 7 9 12 15 15 16 17 18 19 19 18 17 15 16 16 14 13 11 10 9 9 9 8 7 6 5 4 4 3 2 2 1 1 1 1 2 2 2
14 11 8 7 7 7 9 11 13 15 16 17 18 20 20 19 18 16 16 16 15 14 12 11 10 10 10 9 8 7 7 6 5 5 4 4 3 3 3 3 4 4 4
11 8 7 8 7 7 7 10 12 15 17 17 18 19 20 20 18 17 16 16 16 15 13 12 11 11 10 10 9 9 8 7 7 7 6 6 6 6 5 5 5 5 5
10 9 8 7 7 7 8 10 11 13 16 18 19 19 20 19 18 17 17 16 17 15 14 14 13 12 12 11 11 10 10 9 8 8 8 8 8 8 8 8 8 8 8

GEFSSE_500_meanwind_144.txt.gz
Wind_Speed
6 7 7 7 7 7 7 8 9 10 11 11 11 11 11 10 11 11 10 10 9 9 8 7 7 7 6 6 6 6 5 5 5 6 6 6 6 6 6 6 6 6 6
5 6 7 7 6 6 7 8 9 9 10 10 10 11 10 10 10 10 9 9 8 8 7 7 7 6 6 6 5 5 5 5 5 5 5 5 6 5 5 6 6 6 6
5 6 7 7 7 7 7 7 8 9 9 9 9 10 10 10 9 9 9 8 8 7 7 7 7 6 6 6 6 5 5 5 5 5 5 5 5 5 5 5 5 6 6
4 6 7 7 7 8 8 8 8 8 9 9 9 9 9 9 9 9 9 8 7 7 7 7 6 6 6 6 6 5 5 4 5 5 5 4 4 5 5 5 5 6 6
4 5 6 7 8 8 8 8 8 8 8 8 8 8 8 8 8 8 8 8 7 6 6 6 6 6 6 6 5 5 5 5 5 4 4 4 4 4 4 5 6 6 6
4 5 6 7 8 8 8 8 8 8 8 8 8 8 8 8 7 7 7 7 6 6 6 6 6 5 5 5 4 4 5 5 4 4 4 4 4 4 4 5 5 6 5
4 4 5 6 7 8 9 9 8 8 8 8 8 7 7 7 7 6 6 6 6 6 6 6 5 5 5 4 4 4 4 4 4 4 4 3 4 4 4 5 5 5 5
2 3 4 6 7 8 9 9 9 8 8 8 8 7 7 6 6 6 5 5 6 5 5 5 5 4 4 4 3 4 4 4 3 3 3 3 3 4 4 4 4 4 4
1 1 3 6 7 8 9 9 8 8 7 7 7 7 7 6 5 5 5 4 4 4 4 4 4 4 3 3 3 3 3 3 3 2 3 3 3 3 3 4 4 4 4
0 1 2 5 6 7 8 8 8 8 7 7 7 7 6 5 5 5 4 4 3 3 3 4 3 3 3 3 3 3 3 2 2 2 2 2 2 3 3 3 3 3 4
1 1 2 4 6 7 8 9 9 8 8 8 7 7 6 5 5 5 4 3 3 2 3 3 3 3 2 2 2 3 3 2 2 1 2 2 2 2 2 3 3 3 4
2 2 3 4 5 6 7 9 9 9 9 9 8 7 6 5 4 4 4 3 2 2 2 3 3 2 2 2 2 2 2 2 2 1 1 1 1 1 2 2 3 4 4
3 3 3 5 6 7 8 9 10 10 10 9 9 8 7 6 5 5 4 3 2 1 2 2 2 2 2 1 2 2 2 1 1 1 0 1 1 2 2 2 3 4 5
5 4 4 5 6 7 8 10 11 11 11 10 10 9 8 7 6 5 4 3 2 1 1 1 2 2 2 1 1 1 1 1 1 1 1 1 1 1 2 2 3 4 5
5 5 6 7 8 8 9 11 13 13 12 11 11 11 10 8 8 6 5 4 3 2 1 0 1 1 1 1 1 1 1 1 1 1 1 1 1 1 2 2 3 3 4
7 6 7 8 9 9 10 11 13 14 14 13 13 12 11 10 9 8 6 5 4 3 2 1 1 1 1 1 1 2 2 1 1 1 1 2 2 1 1 1 2 2 3
8 8 9 10 10 10 11 12 13 14 15 14 14 13 13 12 11 9 8 6 4 4 3 2 1 1 1 1 2 2 2 1 1 1 2 2 2 2 1 1 2 2 3
10 10 10 11 11 12 11 12 14 15 15 15 15 14 14 13 12 11 9 7 6 5 4 3 2 2 2 2 2 2 2 1 1 1 1 2 2 2 1 1 1 1 1
11 11 11 11 11 11 12 13 14 14 15 16 15 15 15 15 13 12 11 9 7 6 6 5 4 3 3 3 3 3 2 1 1 1 1 2 2 2 2 1 1 1 1
11 11 11 10 10 11 11 12 14 14 14 15 16 15 15 15 14 13 12 10 9 8 7 6 5 5 4 4 3 3 3 2 1 0 1 1 2 2 2 2 1 1 1
12 12 11 10 10 11 12 12 13 15 14 15 16 16 15 16 15 14 13 12 10 9 8 7 7 6 6 5 5 4 3 3 2 2 1 0 1 1 1 2 2 2 2
12 13 13 11 11 12 12 12 12 15 15 15 17 16 16 16 16 15 15 13 12 10 10 9 8 8 7 7 6 5 5 4 4 3 2 1 1 0 1 1 1 1 2
13 13 13 12 10 9 10 11 12 14 15 15 15 16 17 17 17 16 15 14 13 12 11 10 10 9 9 8 7 7 7 6 5 5 4 3 2 2 1 1 1 2 2
12 13 12 10 10 10 10 11 12 14 15 16 16 17 17 17 17 17 15 15 14 13 12 12 11 11 10 10 9 9 8 8 7 6 5 5 4 4 3 3 3 3 4
12 12 11 11 10 9 9 10 12 14 15 17 18 17 16 17 18 18 16 15 14 14 13 13 13 12 11 11 11 10 10 9 8 8 7 7 6 6 6 6 6 6 6
11 11 11 11 10 9 9 10 12 13 15 16 17 17 17 17 17 18 17 16 16 15 15 14 14 13 12 12 12 11 11 10 10 9 9 9 8 8 8 8 8 8 8

GEFSSE_500_meanwind_150.txt.gz
Wind_Speed
4 5 6 6 6 5 5 5 5 5 6 6 6 6 6 6 6 7 7 7 7 7 6 6 6 6 6 6 6 6 5 5 5 5 5 5 5 5 5 5 5 5 5
3 4 5 6 6 5 5 4 5 5 5 5 5 5 6 6 6 6 6 7 6 6 6 6 5 6 5 5 5 5 5 5 5 5 5 5 5 5 5 5 5 5 5
2 3 4 5 5 5 5 4 4 4 4 5 5 5 5 5 5 5 5 5 5 5 5 5 5 5 5 5 4 4 4 4 4 4 4 4 4 4 4 4 4 4 5
2 3 4 4 5 5 5 5 4 4 4 5 5 5 5 5 5 5 5 5 4 4 5 5 5 5 5 4 4 4 4 4 4 4 4 4 4 4 4 4 4 5 5
2 3 3 4 4 5 5 5 5 5 4 5 4 5 4 4 4 4 4 4 4 4 4 4 4 4 4 4 3 3 4 4 4 4 3 3 3 3 3 4 4 4 4
1 2 3 3 4 4 5 5 5 5 5 5 5 5 4 4 4 3 3 3 3 4 4 4 4 4 4 4 3 4 4 4 4 3 3 3 3 3 3 3 3 4 4
1 1 2 3 4 4 5 5 5 5 5 5 5 5 5 4 4 3 3 3 3 3 4 3 4 4 4 3 3 4 4 4 4 3 3 3 3 3 3 3 3 3 3
1 1 1 2 4 5 5 5 6 6 6 6 6 5 5 4 4 3 2 2 2 2 2 3 3 3 4 3 3 3 3 4 3 2 2 2 3 3 3 3 3 2 2
1 1 1 2 3 4 5 6 6 6 6 6 5 5 5 4 4 3 2 2 2 2 2 3 3 3 3 3 3 3 3 3 3 3 2 2 3 3 3 2 2 2 2
2 1 2 2 3 4 5 6 6 6 6 6 5 5 5 4 4 3 2 2 1 2 1 2 2 2 2 3 3 2 2 2 2 2 2 2 2 2 2 1 1 1 1
2 2 2 2 3 4 5 7 7 7 7 7 6 5 5 5 4 3 3 2 1 1 1 2 2 2 2 2 2 2 3 3 3 2 2 2 1 1 1 1 1 1 1
3 3 3 4 4 4 5 7 8 8 8 8 7 7 6 5 5 4 3 2 1 1 1 1 2 2 2 2 2 2 3 3 2 2 2 1 1 0 0 0 1 1 1
5 5 5 5 5 5 6 7 8 9 9 9 8 7 7 6 5 4 4 3 2 1 0 1 2 2 2 2 2 2 2 2 2 2 2 1 1 1 0 1 1 2 2
6 6 6 6 6 6 6 7 8 9 9 9 8 8 7 6 6 5 4 3 3 2 1 1 1 1 1 1 1 1 1 2 2 2 2 2 2 1 0 1 1 2 2
8 7 7 7 7 7 8 8 8 9 10 10 9 9 8 7 7 6 5 4 3 2 2 2 1 1 1 1 1 1 1 1 2 2 2 2 2 1 0 0 1 1 2
10 9 9 8 8 9 10 10 9 10 10 10 10 10 9 9 8 6 5 5 4 3 3 2 2 1 1 1 1 1 1 2 2 2 2 2 2 2 1 0 1 1 1
11 10 10 9 10 10 10 10 9 10 10 11 11 11 10 9 9 8 7 6 5 4 4 3 3 2 2 2 1 1 1 1 1 2 2 2 2 2 1 1 1 1 1
12 11 10 10 11 11 11 11 10 10 11 11 10 10 11 10 10 9 8 7 6 5 5 4 3 3 3 2 2 2 2 1 1 1 2 3 3 3 2 2 2 1 1
12 12 11 11 12 12 12 11 10 10 11 11 11 11 11 11 10 9 10 9 7 7 6 6 5 4 3 3 2 2 2 1 1 1 2 2 3 3 3 3 3 2 2
13 12 12 12 12 12 11 10 10 10 10 10 11 11 11 11 10 10 10 10 9 8 8 7 6 5 5 4 3 3 3 2 1 0 1 1 2 2 2 2 2 2 2
13 13 13 13 12 12 11 10 10 10 11 10 11 11 11 11 11 11 11 11 10 10 9 8 8 7 6 5 4 4 4 3 3 2 1 0 1 2 2 2 2 2 2
14 14 14 13 12 11 10 10 9 9 10 10 10 11 11 11 12 12 11 12 11 10 10 10 9 8 8 7 6 5 5 4 4 3 2 1 1 1 1 1 2 2 1
13 13 13 13 12 11 10 10 9 9 9 9 10 12 12 12 12 12 12 12 12 11 11 11 10 10 10 9 8 7 6 5 5 5 4 3 2 2 2 2 2 2 2
12 12 12 13 12 12 11 10 9 9 10 10 11 13 13 13 13 13 13 12 13 12 12 12 12 12 11 11 10 9 8 8 7 6 5 5 4 4 4 4 4 4 3
12 12 12 12 12 11 11 10 9 9 9 10 11 13 14 14 14 14 14 14 13 13 13 13 13 13 12 12 12 11 10 9 8 8 7 7 7 7 7 7 6 6 6
12 12 12 12 12 11 11 11 10 10 10 11 12 13 14 14 15 15 15 15 14 14 15 14 14 14 14 13 13 12 12 11 10 9 9 8 8 9 9 9 9 8 8

GEFSSE_500_meanwind_156.txt.gz
Wind_Speed
5 6 6 5 6 6 5 4 3 3 3 3 3 3 3 3 3 3 3 3 3 3 3 3 4 4 5 5 5 5 5 5 5 5 6 6 6 6 6 6 6 6 7
4 5 5 5 5 5 4 3 3 2 3 3 2 2 2 2 2 2 3 3 3 3 3 3 3 4 4 4 4 4 4 5 5 5 5 6 6 6 6 6 6 7 7
4 4 3 3 3 3 3 2 1 1 2 2 2 2 2 2 2 2 2 2 2 2 2 3 3 3 3 3 4 4 4 4 4 5 5 5 5 5 5 5 6 6 7
3 3 3 2 2 3 2 1 0 1 2 2 2 2 2 2 2 2 2 2 2 1 1 2 2 3 3 3 3 3 4 4 4 4 4 4 5 5 5 5 6 6 6
3 2 2 2 2 2 3 2 1 1 2 2 2 2 2 2 2 2 2 2 2 1 1 1 2 2 3 3 3 3 3 4 4 4 4 4 4 5 5 5 6 6 6
3 3 2 3 3 3 3 2 1 1 2 2 2 2 2 1 1 2 2 2 1 1 1 1 1 2 2 3 3 3 3 3 4 3 3 3 4 4 5 5 6 6 6
3 3 3 3 3 2 2 2 2 2 2 2 2 2 2 2 1 1 1 1 1 2 1 0 1 1 2 2 3 3 3 3 3 3 3 3 3 3 4 5 5 5 5
2 2 2 2 2 2 1 2 2 2 2 2 2 2 2 2 2 1 2 1 2 2 1 1 1 1 2 2 2 3 3 3 3 3 3 3 3 3 4 4 5 5 5
2 2 2 1 1 1 1 1 2 2 2 2 2 2 1 2 2 2 2 2 2 1 1 1 1 1 1 2 2 2 2 3 3 2 2 2 2 3 3 3 4 4 4
3 2 2 2 1 0 1 1 2 2 3 2 1 2 1 2 2 2 1 1 2 1 1 1 1 1 1 1 1 2 2 2 3 2 2 1 1 2 2 2 3 3 3
4 3 2 2 1 1 1 2 2 3 4 3 2 2 2 2 2 1 1 1 1 1 1 1 1 2 2 1 1 2 2 3 2 2 2 1 1 1 2 2 2 2 3
4 4 3 2 1 1 1 1 2 3 4 4 3 3 3 3 2 2 2 2 1 1 0 0 1 2 2 2 2 1 1 2 2 2 2 2 1 1 1 2 2 2 3
6 4 3 3 2 1 1 1 2 3 4 5 5 4 4 4 3 3 3 3 2 2 0 0 1 2 2 1 2 1 1 1 2 1 1 2 1 1 1 2 2 2 3
8 6 4 3 2 1 2 2 3 4 4 5 5 5 5 5 4 3 4 4 3 2 1 1 1 1 1 1 1 1 1 1 2 1 1 1 1 1 1 1 1 2 3
6 5 4 3 2 3 4 4 4 4 4 5 6 6 6 6 5 4 4 4 3 2 2 1 1 1 1 1 1 0 0 1 1 1 1 1 1 1 0 1 1 2 2
5 4 3 3 3 4 5 5 5 5 5 6 7 8 8 7 5 5 4 4 3 2 2 2 1 1 1 0 1 1 1 0 1 1 1 2 1 1 0 1 1 2 2
5 5 4 4 4 5 4 4 4 4 6 6 7 8 8 7 7 6 6 5 4 4 3 3 2 2 2 1 1 1 1 1 1 0 1 1 2 1 1 1 1 1 2
6 6 6 6 6 5 4 4 4 5 6 7 7 8 9 9 8 8 7 6 5 4 4 4 3 3 3 2 2 2 2 2 1 0 1 1 2 2 1 0 1 1 1
8 7 6 7 7 6 5 4 5 6 7 8 7 7 9 10 9 8 8 7 7 6 5 5 5 4 4 4 3 3 2 2 2 1 1 0 1 1 1 0 1 1 1
7 8 7 7 7 7 6 5 5 5 6 7 7 7 8 10 10 9 8 8 8 8 7 7 6 6 6 5 4 4 4 3 3 3 2 1 1 1 1 0 1 1 2
8 8 7 8 7 7 6 6 6 5 5 5 7 8 9 10 10 10 9 9 9 9 9 8 8 7 7 7 6 6 5 5 6 5 4 3 3 3 2 2 2 2 2
8 7 8 8 7 7 7 7 6 5 5 6 6 8 9 10 10 10 10 10 10 10 9 10 10 9 9 8 8 7 7 7 7 7 6 5 5 4 4 3 3 2 3
10 9 9 8 7 8 7 7 7 6 6 6 7 8 10 10 11 11 11 11 11 11 10 10 11 11 10 10 9 9 8 8 8 8 8 8 8 7 6 6 5 5 4
10 9 9 8 8 7 7 7 6 6 6 7 8 9 11 11 12 12 12 12 11 11 11 12 12 12 11 11 11 10 10 9 9 9 9 9 9 8 9 8 7 7 7
10 9 8 8 8 7 7 7 7 7 7 8 8 9 10 12 13 13 13 13 13 12 12 12 13 12 13 13 12 12 11 11 11 11 11 11 11 11 11 10 10 10 9
8 7 8 8 7 7 7 7 7 7 8 8 9 9 11 13 14 14 14 15 14 14 13 13 13 14 14 14 14 13 13 13 13 12 12 12 12 13 13 12 12 12 13

GEFSSE_500_meanwind_162.txt.gz
Wind_Speed
5 5 5 6 8 9 10 10 10 10 10 9 9 8 8 8 8 7 7 6 6 6 5 5 5 5 5 5 5 5 5 5 5 5 5 6 6 6 6 6 6 6 6
4 4 5 6 7 8 9 9 10 9 9 9 8 8 8 8 7 7 6 6 6 6 5 5 5 5 5 5 5 5 5 5 5 5 5 5 5 5 5 6 6 6 6
4 4 4 5 6 6 7 8 9 9 8 8 8 7 7 7 7 7 7 6 6 6 6 6 5 5 5 5 4 4 4 5 5 5 4 4 5 5 5 5 5 6 6
3 3 4 4 5 6 6 7 7 7 8 8 8 7 7 7 7 7 6 6 6 6 6 6 5 5 5 5 4 4 4 4 4 4 4 4 5 5 5 5 6 6 7
3 3 4 4 5 5 5 6 7 7 7 7 7 7 6 6 6 7 6 6 6 6 5 5 5 5 5 5 4 4 4 4 4 4 4 5 5 5 4 5 5 6 6
3 3 4 4 5 5 5 6 6 6 6 6 6 6 6 5 5 6 6 6 6 6 5 5 4 4 4 4 4 4 4 4 4 4 4 4 4 4 4 4 4 5 5
3 3 4 5 4 4 5 5 5 5 6 6 6 6 5 5 5 5 6 6 6 6 5 4 4 4 4 4 4 4 4 4 4 4 4 4 4 4 4 4 4 5 5
3 3 4 5 4 4 4 4 4 4 4 4 5 5 5 5 5 5 5 6 5 5 4 4 4 4 4 4 4 4 4 4 4 4 4 4 4 3 3 3 4 4 4
3 4 5 5 4 4 4 4 4 4 3 4 4 4 4 4 4 4 4 5 5 5 4 4 4 3 3 4 4 4 4 4 4 4 4 4 4 3 3 3 3 3 3
4 4 4 4 4 4 4 4 4 3 3 3 3 3 3 3 3 3 4 5 5 5 4 4 4 3 3 4 4 4 5 4 4 5 4 4 3 3 2 2 2 2 2
4 4 4 4 4 3 3 3 2 2 2 1 1 1 2 2 2 2 3 4 4 4 4 3 3 3 3 3 4 4 4 4 4 4 5 4 3 3 2 2 2 2 2
4 3 3 3 3 2 2 2 1 1 1 1 0 1 0 1 1 1 2 2 3 3 3 3 3 3 3 3 3 4 4 4 4 4 4 4 4 3 2 2 1 1 2
4 3 2 2 1 2 1 1 1 1 1 1 2 1 1 0 1 1 1 1 2 2 2 2 2 2 2 3 3 3 4 4 4 4 4 4 4 3 2 1 1 1 1
3 3 2 1 1 1 1 1 1 1 2 2 2 3 2 1 1 1 1 1 1 1 1 1 1 2 2 2 2 2 3 4 4 4 4 4 3 3 2 2 1 1 1
4 3 2 2 2 2 2 2 2 2 1 3 4 4 3 2 2 2 2 2 1 1 0 1 0 1 1 1 2 2 2 3 4 4 3 3 3 3 2 1 1 1 0
5 4 4 3 2 3 3 3 2 2 2 2 3 4 4 4 4 4 3 2 2 2 1 1 1 1 1 0 1 1 2 2 3 3 3 3 3 2 2 1 1 1 1
7 5 4 4 3 3 3 3 3 3 3 3 4 4 5 5 5 5 3 3 2 2 2 2 2 2 2 1 0 1 1 1 1 2 2 2 2 2 2 2 1 1 1
8 6 5 4 4 4 4 4 3 3 3 4 4 5 5 6 6 6 5 4 4 4 3 3 3 3 3 2 2 2 2 1 2 2 2 2 2 2 3 2 2 2 2
8 7 6 5 4 4 4 3 3 3 4 4 5 6 6 7 7 7 7 6 5 5 4 4 4 4 4 3 3 3 2 2 2 2 2 2 2 3 3 3 2 3 3
9 8 6 5 4 4 5 5 5 4 4 4 5 6 7 7 7 8 8 7 6 6 6 6 6 6 5 5 5 4 4 4 4 4 3 3 3 3 3 3 3 3 4
8 8 6 4 3 4 5 5 6 5 5 4 5 6 7 8 8 8 8 8 8 7 7 7 8 7 7 7 6 6 6 6 6 5 4 4 5 4 4 4 4 4 4
8 7 7 6 5 4 5 5 5 5 5 5 5 6 7 8 9 9 9 9 9 9 9 9 9 9 9 8 8 8 8 7 7 6 6 6 6 6 6 5 5 5 5
7 7 7 7 7 6 5 6 6 6 6 6 7 8 8 9 10 10 10 10 10 10 10 10 11 11 10 10 10 10 9 9 9 9 8 8 8 8 7 7 7 7 7
8 9 9 8 8 6 6 5 6 6 7 8 8 8 9 10 12 12 12 11 12 12 12 12 12 13 12 12 12 12 12 11 11 11 11 11 10 10 10 10 9 10 10
10 10 11 10 7 7 7 6 6 6 7 8 7 8 10 11 12 13 13 13 13 13 13 14 14 14 14 13 13 13 13 14 13 13 13 13 13 12 12 12 12 12 12
10 10 10 9 7 7 6 6 6 7 8 8 8 9 10 11 12 13 14 15 14 14 14 15 15 15 16 15 15 15 15 15 16 16 16 16 15 14 13 13 13 14 13

GEFSSE_500_meanwind_168.txt.gz
Wind_Speed
8 8 8 8 8 9 9 9 10 11 11 11 11 11 11 11 11 10 10 9 9 8 8 8 7 7 6 6 6 6 6 5 5 5 5 5 5 5 5 5 5 5 5
7 7 7 7 7 8 8 8 9 9 10 10 11 10 11 10 10 10 9 9 8 8 8 8 7 7 6 6 6 6 6 5 5 5 5 5 5 5 5 5 5 5 5
7 6 6 6 6 7 7 8 8 8 9 9 9 10 10 10 10 10 9 9 8 8 8 7 7 7 6 6 6 6 5 5 5 5 4 4 4 4 4 5 4 5 5
6 6 6 6 6 7 7 7 7 8 8 8 8 9 9 9 9 9 8 8 8 8 8 7 7 7 7 7 6 6 6 5 5 5 4 4 4 4 4 4 4 5 5
6 5 5 5 6 6 7 7 7 8 8 8 8 8 8 8 8 8 8 8 8 8 7 7 7 6 6 6 6 6 6 6 5 5 5 4 4 4 4 4 4 5 5
5 5 5 5 5 6 6 6 7 7 8 8 8 8 7 7 7 7 7 7 7 7 7 6 6 6 6 5 5 5 6 6 5 5 4 4 4 4 4 4 4 4 4
5 4 4 5 5 6 6 6 6 7 7 7 7 7 7 6 6 6 7 7 7 7 7 6 6 6 5 5 5 6 6 6 5 5 4 4 4 4 3 4 4 4 4
5 4 4 4 5 5 5 6 6 6 6 6 6 7 6 6 6 6 6 6 7 7 7 6 6 5 6 5 6 6 6 5 5 5 4 4 3 3 3 3 3 3 3
5 4 4 4 4 4 5 5 5 5 5 6 5 6 6 6 6 6 6 6 6 7 7 6 6 5 5 5 6 6 6 5 5 5 4 4 3 3 3 3 3 3 3
5 4 3 3 2 3 3 4 4 4 5 5 5 5 4 5 5 5 6 6 6 6 6 6 6 5 5 6 6 5 5 5 5 4 4 3 3 3 3 3 3 2 2
4 3 2 2 1 1 2 2 3 3 4 4 4 4 3 3 4 4 5 5 5 5 5 6 6 5 5 5 5 5 5 5 5 4 4 3 3 3 3 3 3 2 2
3 3 2 1 1 0 0 1 2 3 4 3 3 3 3 3 4 4 4 4 5 5 5 5 5 5 5 5 5 5 5 4 4 4 4 3 3 3 3 3 3 2 2
3 2 1 1 1 1 1 1 2 3 3 3 2 3 3 3 3 3 3 3 4 4 4 4 5 5 5 5 4 4 4 4 4 4 3 3 3 3 3 3 3 2 2
2 2 1 1 1 2 2 2 2 3 3 3 2 3 4 3 3 3 3 3 4 4 4 4 4 4 4 4 4 4 4 4 4 3 3 3 3 3 3 2 2 2 1
2 1 1 2 2 2 2 2 2 3 4 3 3 4 4 4 3 3 3 3 3 3 3 3 3 3 3 3 3 3 3 3 3 3 3 3 3 2 2 2 2 1 1
3 2 2 3 3 2 3 2 2 3 3 3 4 4 4 4 4 3 4 4 4 4 3 3 3 3 2 2 3 2 2 2 2 2 2 2 2 2 2 1 1 1 0
4 4 3 3 3 3 2 2 2 3 3 3 4 4 4 4 4 4 4 4 4 4 3 3 3 3 2 2 2 1 1 1 1 1 1 1 1 1 1 1 1 0 1
5 5 4 4 4 3 2 2 2 3 3 4 4 5 5 5 5 5 5 5 4 4 4 4 4 3 3 2 1 1 1 1 0 0 0 1 1 1 1 1 1 1 1
7 6 5 5 4 3 2 2 3 2 3 4 4 5 5 5 6 6 5 5 5 5 5 4 5 4 4 3 3 3 2 2 2 2 1 1 1 1 2 2 2 2 2
8 7 7 5 4 3 3 4 4 4 4 5 6 6 5 5 6 6 6 6 6 6 6 6 6 5 5 4 4 4 4 4 4 3 3 3 3 3 3 3 3 3 3
8 8 7 6 4 3 4 5 5 5 5 5 6 6 6 6 6 7 7 7 7 7 7 7 7 7 6 6 6 6 6 5 5 5 5 5 5 5 4 4 4 4 4
9 9 8 7 6 5 5 6 7 6 5 5 6 7 7 6 7 8 8 9 8 8 8 8 8 8 8 7 7 7 7 7 7 7 7 7 6 6 6 6 6 6 6
9 9 9 8 7 6 6 6 7 7 5 6 6 7 7 8 8 9 9 10 10 10 10 10 10 10 9 9 9 9 9 9 9 9 9 9 8 8 8 8 8 8 8
10 10 10 10 9 7 6 6 6 7 7 6 6 7 7 8 9 10 10 10 10 10 11 11 11 11 11 11 11 11 11 11 11 11 11 11 11 11 11 10 10 10 10
11 11 11 11 10 9 8 8 8 7 8 8 8 8 8 9 10 10 11 11 12 12 13 13 12 13 13 14 14 13 13 13 13 13 13 13 13 13 13 13 13 13 13
12 11 11 12 11 10 9 8 9 9 9 9 9 9 10 10 10 11 12 13 14 14 15 15 15 14 15 15 15 16 16 15 16 16 15 16 16 16 16 16 16 16 16

GEFSSE_500_meanwind_174.txt.gz
Wind_Speed
7 7 6 5 4 4 4 4 4 5 5 5 6 6 6 6 7 7 7 7 7 7 7 7 7 7 7 7 7 6 7 6 6 6 6 6 6 6 6 5 5 5 5
5 5 5 4 3 3 3 3 3 3 4 4 5 5 5 6 6 6 7 7 7 7 7 7 7 7 7 7 7 6 6 6 6 6 6 5 5 5 6 6 5 6 6
4 4 4 3 3 2 2 2 2 3 3 3 4 4 4 5 5 6 6 6 6 7 7 7 7 7 7 7 6 6 6 6 5 6 6 5 5 5 5 5 5 6 6
4 3 3 3 2 2 1 2 2 2 2 2 3 3 3 4 4 5 5 6 6 6 6 7 7 7 6 6 6 6 6 5 5 5 5 5 5 5 5 5 6 6 6
3 3 3 2 2 2 1 2 1 1 1 2 2 3 3 3 3 4 5 5 5 6 6 6 6 6 6 6 6 5 5 5 5 5 5 5 5 5 5 5 5 5 5
3 3 2 2 2 2 2 1 1 1 1 2 2 2 3 3 3 4 4 5 5 5 6 6 6 6 5 5 5 5 5 5 6 6 5 5 5 5 5 5 5 5 4
2 2 2 2 2 2 1 1 1 1 1 1 2 2 2 2 3 4 4 4 4 5 5 6 5 5 5 5 5 5 5 5 6 6 5 5 5 5 5 5 5 4 4
2 2 2 1 1 1 1 1 1 1 1 1 2 2 2 2 3 4 4 3 4 5 5 5 5 5 5 5 5 5 5 6 6 5 5 5 5 5 5 4 4 4 4
1 2 1 1 1 2 2 1 1 1 0 1 1 2 2 3 3 3 4 4 4 5 5 5 5 5 5 6 6 5 5 6 6 5 5 5 5 4 5 4 4 4 4
2 2 2 2 2 2 2 2 2 2 1 1 0 1 2 2 2 3 3 3 4 4 4 4 5 5 5 5 5 5 5 5 5 5 5 5 5 5 4 4 4 4 3
2 3 3 3 3 3 3 3 2 2 2 2 1 1 1 1 1 2 2 3 3 3 4 4 5 5 5 5 5 5 5 5 5 5 5 5 5 5 4 4 4 3 3
3 3 3 4 4 4 4 3 3 2 2 2 2 1 1 0 1 1 1 2 3 3 4 4 4 5 4 4 4 5 5 4 5 5 5 5 4 4 5 4 4 3 3
4 4 4 4 5 5 5 4 4 3 3 3 3 2 1 1 1 1 1 1 2 3 3 4 4 4 4 4 4 4 4 4 5 4 4 4 4 4 4 3 4 3 3
5 5 6 6 6 6 5 4 4 4 3 2 2 1 1 1 0 0 1 2 2 2 3 3 4 3 3 3 3 4 4 4 4 4 4 4 4 3 3 3 3 3 3
6 6 6 6 6 6 6 5 5 4 4 3 2 1 1 1 1 1 1 1 1 1 2 3 2 2 2 2 2 2 3 3 3 3 3 3 3 3 3 3 3 2 2
7 7 7 7 7 7 7 6 5 4 3 3 2 1 2 2 1 1 1 1 1 1 1 2 2 1 1 1 1 1 1 2 2 2 2 2 2 2 2 2 2 2 2
8 8 7 7 7 7 7 6 5 4 3 3 2 2 2 2 2 2 2 2 2 2 2 2 1 1 1 1 1 1 0 1 1 2 2 2 2 1 1 2 2 1 1
10 10 9 8 8 7 7 6 5 4 3 4 3 3 3 3 3 3 2 3 3 3 3 3 3 2 2 2 2 1 1 1 1 1 2 2 2 1 1 2 2 2 1
11 10 10 10 9 8 7 5 5 4 4 4 4 4 4 4 4 4 4 4 4 4 4 4 4 3 4 4 3 3 2 2 1 2 2 2 2 2 2 2 2 2 2
12 11 10 10 10 9 7 6 5 5 5 5 5 5 5 5 5 5 5 4 4 5 5 5 5 5 5 5 4 4 4 4 4 4 4 4 4 4 3 3 3 3 3
12 12 11 10 10 9 8 7 6 6 6 6 6 6 5 5 5 5 5 5 5 6 6 6 6 6 6 6 6 6 6 6 6 6 6 5 5 5 5 5 5 5 5
14 13 12 11 10 10 10 8 7 7 7 6 6 6 7 6 7 7 6 7 7 7 7 7 8 8 8 8 8 8 8 8 8 8 8 7 7 7 7 8 7 7 7
13 13 12 12 11 10 10 10 9 9 8 8 8 7 8 8 8 7 7 7 8 8 9 10 10 10 10 10 10 10 11 11 10 10 10 10 10 10 10 10 9 10 10
14 14 13 13 12 11 11 11 10 10 9 9 7 7 7 8 8 8 8 9 9 10 10 10 11 11 11 12 12 13 13 13 13 13 13 13 13 12 11 12 12 12 12
14 14 13 13 12 12 12 12 10 9 9 8 7 7 7 7 8 8 8 9 10 10 11 12 12 12 12 13 13 14 14 15 15 15 15 15 15 15 14 14 14 14 14
15 15 14 14 13 13 12 11 10 9 8 8 8 8 9 9 9 9 10 10 11 11 12 12 13 13 13 14 15 16 16 16 16 17 17 17 17 18 18 17 17 18 17

GEFSSE_500_meanwind_180.txt.gz
Wind_Speed
9 9 8 8 8 8 7 6 6 6 6 5 5 5 4 4 4 4 4 4 5 5 5 5 5 5 6 6 6 7 7 7 7 7 7 7 7 7 7 7 7 7 6
8 8 8 8 7 7 7 6 6 6 5 5 4 4 4 4 4 4 4 4 4 4 5 5 5 5 6 6 6 7 7 6 7 7 7 7 7 7 7 7 7 7 7
8 7 7 7 7 7 6 6 6 5 5 5 4 4 4 4 4 4 4 4 4 4 4 4 5 5 5 6 6 6 6 6 7 6 6 7 7 7 7 7 7 7 7
7 7 7 7 7 6 6 6 6 5 5 5 4 4 3 3 3 3 4 3 4 4 4 4 4 4 5 5 6 5 5 6 6 6 6 7 7 7 7 7 6 6 7
7 7 7 7 6 6 6 6 6 6 5 5 4 4 3 3 3 3 3 3 3 3 3 3 3 4 5 5 5 5 5 6 6 6 6 7 7 7 7 6 6 6 6
7 7 7 7 6 6 6 6 6 6 5 5 5 4 3 3 2 2 3 3 3 3 3 3 3 4 4 4 4 5 5 5 6 7 7 6 7 7 7 6 6 6 6
7 6 6 6 6 6 6 5 5 5 5 5 5 5 4 3 2 2 2 2 3 3 3 3 3 4 4 4 4 5 5 5 6 6 6 6 6 6 6 6 7 6 6
6 6 6 6 6 6 6 5 4 4 4 4 4 5 4 3 3 2 2 2 3 3 3 3 3 3 4 4 4 5 5 5 6 6 5 6 6 6 6 6 6 7 7
6 6 6 6 6 6 6 5 4 4 4 4 4 4 4 3 3 2 2 2 2 3 3 3 3 4 4 4 4 5 5 5 5 5 5 5 6 6 6 6 6 6 6
7 6 6 7 6 6 5 5 4 4 4 3 3 3 3 3 2 2 2 2 2 2 3 3 4 4 5 4 4 5 5 5 5 5 5 5 5 5 5 5 6 6 5
6 6 6 6 6 5 5 5 5 4 3 3 3 3 3 2 2 2 2 2 2 3 3 3 4 4 5 5 4 4 5 5 5 5 4 4 5 5 5 5 5 5 5
7 7 6 6 6 6 5 5 5 4 4 3 2 2 2 2 2 2 1 2 2 3 3 3 3 4 4 4 4 4 4 4 4 4 4 4 4 4 5 4 4 4 4
7 7 7 6 6 6 6 4 4 4 4 3 3 2 2 2 1 1 1 2 2 3 2 3 3 3 4 4 4 4 4 4 4 3 4 4 3 3 3 4 4 3 3
8 8 7 6 5 6 5 4 4 4 3 3 3 3 2 2 1 0 1 1 2 2 2 2 3 3 3 3 3 3 2 3 3 3 3 3 3 3 2 2 2 2 2
8 7 6 6 5 5 4 4 4 3 3 2 2 2 2 1 1 1 1 1 1 2 1 1 2 2 2 2 2 1 1 1 2 2 2 2 2 2 2 1 1 1 0
10 9 7 6 5 5 4 4 3 3 2 1 2 1 1 1 1 1 1 1 1 1 0 0 0 1 1 1 1 0 1 1 1 1 2 2 1 1 1 1 0 1 1
11 9 9 8 6 5 5 4 3 2 2 2 1 1 1 1 2 1 1 1 1 0 1 1 1 0 0 0 0 1 1 1 1 1 1 1 1 1 1 1 1 1 1
11 9 9 9 8 6 5 4 3 2 1 2 2 1 1 1 2 2 2 1 1 1 2 2 2 2 2 1 1 1 2 2 2 2 2 2 2 2 2 2 2 2 2
10 10 9 9 8 7 6 5 4 2 1 1 2 1 1 1 2 3 3 2 2 2 3 3 3 3 3 3 3 3 3 3 3 4 4 4 4 4 4 4 4 4 4
10 10 9 9 8 7 6 5 4 3 2 2 2 2 2 2 3 3 3 4 3 3 4 4 4 4 4 5 5 5 5 6 6 6 6 6 6 6 6 6 6 6 6
11 10 9 9 8 7 7 6 4 3 3 3 3 4 3 3 3 3 4 4 4 4 4 4 5 5 6 6 7 7 7 7 8 8 8 8 8 8 8 8 9 9 9
10 10 10 9 8 7 7 7 5 4 4 4 5 5 4 4 4 4 4 4 5 5 6 6 6 7 8 8 9 9 9 10 10 10 11 10 10 10 10 10 11 11 11
11 11 10 9 8 7 7 7 6 5 5 5 5 6 5 5 5 5 5 6 7 7 7 7 8 8 9 9 10 10 11 12 12 12 13 13 12 12 12 13 13 14 14
11 11 9 9 9 8 7 8 7 7 6 5 4 5 5 4 4 5 6 6 7 7 8 9 9 10 11 11 12 12 13 13 14 14 15 15 14 15 15 15 15 15 16
11 10 10 10 10 9 8 8 8 7 6 5 4 4 4 3 4 4 5 5 6 6 8 9 10 11 11 12 13 14 14 15 15 14 14 15 16 17 17 17 17 18 19
10 10 10 10 10 9 9 8 8 8 7 5 5 4 5 4 4 4 5 6 6 8 9 10 10 11 12 13 14 15 15 15 16 16 15 16 16 18 18 19 20 20 20

GEFSSE_500_meanwind_186.txt.gz
Wind_Speed
8 8 9 10 10 11 11 11 10 10 10 10 10 9 9 9 8 8 8 8 7 7 7 6 7 7 7 6 6 6 7 7 7 6 6 7 6 6 6 6 6 6 6
8 8 8 9 10 11 11 10 10 10 10 10 9 9 9 9 8 8 8 8 7 7 6 6 7 7 7 6 6 6 6 7 6 6 6 6 6 6 6 6 5 6 6
7 8 8 9 10 10 10 10 10 9 9 9 9 8 8 8 8 8 8 8 7 7 6 6 6 6 6 6 6 6 6 6 6 6 6 6 6 6 6 6 5 6 6
7 7 8 9 9 10 10 10 9 9 9 9 9 8 8 8 7 7 7 7 7 7 7 6 6 5 6 6 6 6 6 6 6 6 6 6 6 6 6 6 5 6 6
7 7 8 8 9 9 9 9 9 9 9 9 8 8 7 7 7 7 7 7 7 7 6 6 6 6 6 6 6 6 6 6 6 6 6 6 6 6 5 5 6 6 6
7 7 8 8 9 8 9 8 8 9 9 9 8 8 7 7 7 7 7 7 7 6 6 6 6 6 6 6 6 6 5 5 6 6 6 6 6 6 6 6 6 5 5
7 8 8 8 8 8 8 8 8 8 8 8 8 8 7 7 7 7 7 6 6 6 5 5 6 6 6 6 6 6 6 5 6 6 6 6 6 6 6 6 5 5 5
7 8 8 8 8 8 8 8 7 7 7 7 7 7 7 7 7 6 6 6 6 5 5 5 5 5 6 6 5 5 6 6 6 6 6 6 5 5 5 5 5 5 5
8 8 8 8 8 8 7 7 7 7 7 7 6 7 7 7 6 6 6 6 6 5 5 5 5 5 6 6 6 5 5 6 6 6 6 6 5 5 5 5 4 4 4
9 8 8 8 8 7 7 7 6 7 6 6 6 6 6 6 6 6 5 5 5 5 5 5 5 5 6 6 6 5 6 6 6 6 6 6 5 5 5 4 4 4 3
8 8 8 7 7 7 7 7 6 6 5 5 5 5 5 6 5 5 5 5 5 5 5 5 6 6 6 6 6 6 6 6 6 6 6 5 5 5 4 3 3 4 3
8 8 8 8 7 6 6 6 6 5 5 5 5 4 5 5 5 5 5 5 5 6 6 5 6 6 6 6 6 6 6 5 5 5 5 5 4 4 4 3 3 3 2
8 7 7 7 7 6 5 5 5 5 5 5 5 4 4 4 5 5 5 5 5 5 5 5 5 5 5 5 5 5 5 5 5 4 4 4 4 3 3 3 2 2 2
8 8 7 7 6 5 5 4 4 4 5 5 5 4 4 3 4 4 4 4 4 5 4 4 4 4 4 4 4 4 4 4 4 4 3 3 3 3 2 2 2 2 1
8 8 7 7 6 5 4 4 4 3 3 4 4 4 3 3 3 3 3 3 3 3 3 3 3 2 2 3 3 3 3 3 3 3 3 3 2 2 1 2 2 2 1
9 8 7 7 6 5 4 3 3 3 3 2 2 3 2 2 2 3 3 3 3 3 2 2 1 1 1 1 2 2 2 3 3 2 2 2 2 2 2 2 2 2 2
9 9 8 7 6 5 4 4 3 3 1 1 2 2 2 1 1 1 2 2 2 1 1 0 0 0 1 1 2 2 2 2 2 2 2 3 3 3 2 3 3 3 3
9 9 8 7 6 5 4 3 3 3 2 1 1 2 1 1 0 1 1 1 1 1 1 1 1 2 1 2 2 2 3 3 3 3 3 3 4 4 4 5 5 5 5
10 9 8 7 6 5 4 4 3 2 2 1 1 2 2 2 2 2 3 3 3 3 3 2 3 3 3 4 4 4 5 5 5 5 5 5 6 6 6 7 7 7 6
10 9 8 7 6 5 4 4 3 2 2 3 2 3 3 3 3 4 4 4 5 4 4 4 4 4 5 5 6 6 7 7 7 7 8 8 8 8 8 9 9 9 9
10 9 8 7 6 5 4 4 3 3 3 3 4 4 4 4 4 4 5 5 5 6 5 5 5 6 6 7 8 8 9 9 10 10 10 10 10 10 10 11 11 11 11
10 9 8 7 6 5 5 4 4 3 3 3 4 4 4 5 5 6 5 5 5 6 6 6 6 7 8 9 9 10 11 11 11 11 12 13 13 13 13 13 13 13 14
10 9 9 8 7 6 5 5 5 4 4 4 4 5 5 6 6 5 5 5 6 6 7 7 8 9 9 10 11 11 12 13 13 14 14 14 15 15 15 16 16 16 16
9 9 9 8 8 7 6 6 5 5 5 4 4 4 5 5 4 4 5 6 7 7 8 9 10 10 11 12 12 13 14 14 15 16 16 17 17 17 17 18 19 18 18
10 9 8 8 8 8 7 6 6 5 5 5 5 5 4 4 4 5 5 6 7 8 9 10 10 11 12 13 13 14 14 15 15 16 17 18 18 19 19 19 19 20 20
11 9 8 8 8 7 7 6 6 6 6 5 6 5 5 5 5 6 6 7 7 8 9 10 11 12 13 14 14 15 15 16 17 17 18 18 19 20 21 21 21 20 20